Observation data for Stamford on 11/14/2019      Previous  Date  Next       Current Mesonet Observations  Soil Data  Daily Summary Page  Observations in Plain Language
KST2 140600Z 18002KT 03/01 A3009 RMK A01 T00250012  RH  091%=      5-min Rain = 0
KST2 140601Z 18002KT 02/01 A3009 RMK A01 T00240012  RH  091%=      5-min Rain = 0
KST2 140602Z 18002KT 03/01 A3009 RMK A01 T00250012  RH  091%=      5-min Rain = 0
KST2 140603Z 18002KT 02/01 A3009 RMK A01 T00240012  RH  091%=      5-min Rain = 0
KST2 140604Z 18002KT 03/01 A3009 RMK A01 T00250012  RH  091%=      5-min Rain = 0
KST2 140605Z 18002KT 03/01 A3009 RMK A01 T00250012  RH  091%=      5-min Rain = 0
KST2 140606Z 18002KT 02/01 A3009 RMK A01 T00240012  RH  091%=      5-min Rain = 0
KST2 140607Z 18002KT 03/01 A3009 RMK A01 T00250012  RH  091%=      5-min Rain = 0
KST2 140608Z 18002KT 03/01 A3009 RMK A01 T00250012  RH  091%=      5-min Rain = 0
KST2 140609Z 18002KT 02/01 A3009 RMK A01 T00240012  RH  091%=      5-min Rain = 0
KST2 140610Z 18002KT 03/01 A3009 RMK A01 T00250012  RH  092%=      5-min Rain = 0
KST2 140611Z 18002KT 02/01 A3009 RMK A01 T00240012  RH  092%=      5-min Rain = 0
KST2 140612Z 18002KT 03/01 A3009 RMK A01 T00250012  RH  092%=      5-min Rain = 0
KST2 140613Z 19001KT 03/01 A3009 RMK A01 T00250012  RH  092%=      5-min Rain = 0
KST2 140614Z 19002KT 03/01 A3009 RMK A01 T00250012  RH  092%=      5-min Rain = 0
KST2 140615Z 20002KT 03/01 A3009 RMK A01 T00250012  RH  092%=      5-min Rain = 0
KST2 140616Z 20001KT 03/01 A3009 RMK A01 T00250012  RH  092%=      5-min Rain = 0
KST2 140617Z 20001KT 03/01 A3009 RMK A01 T00250013  RH  092%=      5-min Rain = 0
KST2 140618Z 21002KT 03/01 A3009 RMK A01 T00250013  RH  092%=      5-min Rain = 0
KST2 140619Z 21002KT 03/01 A3009 RMK A01 T00250013  RH  092%=      5-min Rain = 0
KST2 140620Z 21003KT 03/01 A3009 RMK A01 T00250013  RH  092%=      5-min Rain = 0
KST2 140621Z 21003KT 03/01 A3009 RMK A01 T00250013  RH  092%=      5-min Rain = 0
KST2 140622Z 20003KT 03/01 A3009 RMK A01 T00250013  RH  092%=      5-min Rain = 0
KST2 140623Z 20003KT 03/01 A3009 RMK A01 T00250013  RH  092%=      5-min Rain = 0
KST2 140624Z 20003KT 03/01 A3009 RMK A01 T00250013  RH  092%=      5-min Rain = 0
KST2 140625Z 19003KT 03/01 A3009 RMK A01 T00250013  RH  092%=      5-min Rain = 0
KST2 140626Z 19003KT 03/01 A3009 RMK A01 T00260013  RH  092%=      5-min Rain = 0
KST2 140627Z 20003KT 03/01 A3009 RMK A01 T00250013  RH  092%=      5-min Rain = 0
KST2 140628Z 19003KT 03/01 A3009 RMK A01 T00260013  RH  092%=      5-min Rain = 0
KST2 140629Z 19004KT 03/01 A3009 RMK A01 T00250013  RH  092%=      5-min Rain = 0
KST2 140630Z 19004KT 03/01 A3009 RMK A01 T00250013  RH  092%=      5-min Rain = 0
KST2 140631Z 19004KT 02/01 A3009 RMK A01 T00240012  RH  092%=      5-min Rain = 0
KST2 140632Z 19004KT 02/01 A3009 RMK A01 T00240011  RH  092%=      5-min Rain = 0
KST2 140633Z 19003KT 02/01 A3009 RMK A01 T00230011  RH  092%=      5-min Rain = 0
KST2 140634Z 19003KT 02/01 A3009 RMK A01 T00230011  RH  092%=      5-min Rain = 0
KST2 140635Z 19003KT 02/01 A3009 RMK A01 T00230011  RH  092%=      5-min Rain = 0
KST2 140636Z 19003KT 02/01 A3009 RMK A01 T00230011  RH  092%=      5-min Rain = 0
KST2 140637Z 19003KT 02/01 A3009 RMK A01 T00230011  RH  092%=      5-min Rain = 0
KST2 140638Z 19003KT 02/01 A3009 RMK A01 T00230011  RH  092%=      5-min Rain = 0
KST2 140639Z 19003KT 02/01 A3009 RMK A01 T00230011  RH  092%=      5-min Rain = 0
KST2 140640Z 19003KT 02/01 A3009 RMK A01 T00230011  RH  092%=      5-min Rain = 0
KST2 140641Z 19003KT 02/01 A3009 RMK A01 T00230011  RH  092%=      5-min Rain = 0
KST2 140642Z 19003KT 02/01 A3009 RMK A01 T00230011  RH  092%=      5-min Rain = 0
KST2 140643Z 20003KT 02/01 A3009 RMK A01 T00230011  RH  092%=      5-min Rain = 0
KST2 140644Z 21003KT 02/01 A3009 RMK A01 T00220011  RH  092%=      5-min Rain = 0
KST2 140645Z 21003KT 02/01 A3009 RMK A01 T00220011  RH  092%=      5-min Rain = 0
KST2 140646Z 21004KT 02/01 A3009 RMK A01 T00220010  RH  092%=      5-min Rain = 0
KST2 140647Z 21003KT 02/01 A3009 RMK A01 T00220010  RH  092%=      5-min Rain = 0
KST2 140648Z 21003KT 02/01 A3009 RMK A01 T00210010  RH  092%=      5-min Rain = 0
KST2 140649Z 21003KT 02/01 A3009 RMK A01 T00210010  RH  092%=      5-min Rain = 0
KST2 140650Z 21003KT 02/01 A3009 RMK A01 T00200010  RH  093%=      5-min Rain = 0
KST2 140651Z 21003KT 02/01 A3009 RMK A01 T00210010  RH  093%=      5-min Rain = 0
KST2 140652Z 21003KT 02/01 A301 RMK A01 T00210010  RH  093%=      5-min Rain = 0
KST2 140653Z 21003KT 02/01 A301 RMK A01 T00210011  RH  093%=      5-min Rain = 0
KST2 140654Z 21003KT 02/01 A301 RMK A01 T00210010  RH  093%=      5-min Rain = 0
KST2 140655Z 21003KT 02/01 A301 RMK A01 T00210011  RH  093%=      5-min Rain = 0
KST2 140656Z 21003KT 02/01 A301 RMK A01 T00210011  RH  093%=      5-min Rain = 0
KST2 140657Z 21003KT 02/01 A301 RMK A01 T00210011  RH  093%=      5-min Rain = 0
KST2 140658Z 21003KT 02/01 A301 RMK A01 T00220012  RH  093%=      5-min Rain = 0
KST2 140659Z 21003KT 02/01 A301 RMK A01 T00220011  RH  093%=      5-min Rain = 0
KST2 140700Z 21003KT 02/01 A301 RMK A01 T00220012  RH  093%=      5-min Rain = 0
KST2 140701Z 21003KT 02/01 A301 RMK A01 T00230012  RH  093%=      5-min Rain = 0
KST2 140702Z 21003KT 02/01 A301 RMK A01 T00230012  RH  093%=      5-min Rain = 0
KST2 140703Z 21003KT 02/01 A301 RMK A01 T00230012  RH  092%=      5-min Rain = 0
KST2 140704Z 21003KT 02/01 A301 RMK A01 T00230012  RH  092%=      5-min Rain = 0
KST2 140705Z 21003KT 02/01 A301 RMK A01 T00230012  RH  092%=      5-min Rain = 0
KST2 140706Z 21004KT 02/01 A301 RMK A01 T00230012  RH  092%=      5-min Rain = 0
KST2 140707Z 21003KT 02/01 A301 RMK A01 T00230012  RH  092%=      5-min Rain = 0
KST2 140708Z 21003KT 02/01 A301 RMK A01 T00230012  RH  092%=      5-min Rain = 0
KST2 140709Z 21003KT 02/01 A301 RMK A01 T00230012  RH  092%=      5-min Rain = 0
KST2 140710Z 21003KT 02/01 A301 RMK A01 T00230012  RH  092%=      5-min Rain = 0
KST2 140711Z 21003KT 02/01 A301 RMK A01 T00230012  RH  093%=      5-min Rain = 0
KST2 140712Z 21003KT 02/01 A301 RMK A01 T00230012  RH  093%=      5-min Rain = 0
KST2 140713Z 22003KT 02/01 A301 RMK A01 T00230012  RH  093%=      5-min Rain = 0
KST2 140714Z 22003KT 02/01 A301 RMK A01 T00230013  RH  093%=      5-min Rain = 0
KST2 140715Z 22003KT 02/01 A301 RMK A01 T00230013  RH  093%=      5-min Rain = 0
KST2 140716Z 22003KT 02/01 A301 RMK A01 T00240013  RH  093%=      5-min Rain = 0
KST2 140717Z 22003KT 02/01 A301 RMK A01 T00240013  RH  093%=      5-min Rain = 0
KST2 140718Z 22003KT 02/01 A301 RMK A01 T00240013  RH  093%=      5-min Rain = 0
KST2 140719Z 22003KT 02/01 A301 RMK A01 T00240013  RH  092%=      5-min Rain = 0
KST2 140720Z 22003KT 02/01 A301 RMK A01 T00240013  RH  092%=      5-min Rain = 0
KST2 140721Z 22003KT 02/01 A301 RMK A01 T00240013  RH  092%=      5-min Rain = 0
KST2 140722Z 22003KT 02/01 A3011 RMK A01 T00240013  RH  092%=      5-min Rain = 0
KST2 140723Z 22003KT 02/01 A3011 RMK A01 T00240013  RH  092%=      5-min Rain = 0
KST2 140724Z 22002KT 02/01 A3011 RMK A01 T00240013  RH  092%=      5-min Rain = 0
KST2 140725Z 22002KT 02/01 A3011 RMK A01 T00240013  RH  092%=      5-min Rain = 0
KST2 140726Z 22002KT 02/01 A3011 RMK A01 T00240013  RH  092%=      5-min Rain = 0
KST2 140727Z 22002KT 02/01 A3011 RMK A01 T00240013  RH  092%=      5-min Rain = 0
KST2 140728Z 22002KT 02/01 A3011 RMK A01 T00240013  RH  092%=      5-min Rain = 0
KST2 140729Z 22002KT 02/01 A3011 RMK A01 T00240013  RH  092%=      5-min Rain = 0
KST2 140730Z 22002KT 02/01 A3011 RMK A01 T00240012  RH  092%=      5-min Rain = 0
KST2 140731Z 22002KT 02/01 A3011 RMK A01 T00230012  RH  092%=      5-min Rain = 0
KST2 140732Z 22002KT 02/01 A3011 RMK A01 T00230012  RH  092%=      5-min Rain = 0
KST2 140733Z 22002KT 02/01 A3011 RMK A01 T00230011  RH  092%=      5-min Rain = 0
KST2 140734Z 22002KT 02/01 A3011 RMK A01 T00220011  RH  092%=      5-min Rain = 0
KST2 140735Z 22002KT 02/01 A3011 RMK A01 T00210010  RH  092%=      5-min Rain = 0
KST2 140736Z 22001KT 02/01 A3011 RMK A01 T00210010  RH  092%=      5-min Rain = 0
KST2 140737Z 22001KT 02/01 A3011 RMK A01 T00210009  RH  092%=      5-min Rain = 0
KST2 140738Z 22001KT 02/01 A3011 RMK A01 T00200009  RH  092%=      5-min Rain = 0
KST2 140739Z 22001KT 02/01 A3011 RMK A01 T00200008  RH  092%=      5-min Rain = 0
KST2 140740Z 22001KT 02/01 A3011 RMK A01 T00190007  RH  092%=      5-min Rain = 0
KST2 140741Z 22001KT 02/01 A3011 RMK A01 T00190007  RH  092%=      5-min Rain = 0
KST2 140742Z 22001KT 02/01 A3012 RMK A01 T00190007  RH  092%=      5-min Rain = 0
KST2 140743Z 22001KT 02/01 A3012 RMK A01 T00190007  RH  092%=      5-min Rain = 0
KST2 140744Z 22000KT 02/01 A3012 RMK A01 T00180007  RH  092%=      5-min Rain = 0
KST2 140745Z 00000KT 02/01 A3012 RMK A01 T00180007  RH  092%=      5-min Rain = 0
KST2 140746Z 00000KT 02/01 A3012 RMK A01 T00180008  RH  093%=      5-min Rain = 0
KST2 140747Z 00000KT 02/01 A3012 RMK A01 T00180007  RH  093%=      5-min Rain = 0
KST2 140748Z 00000KT 02/01 A3012 RMK A01 T00180008  RH  093%=      5-min Rain = 0
KST2 140749Z 00000KT 02/01 A3012 RMK A01 T00180008  RH  093%=      5-min Rain = 0
KST2 140750Z 00000KT 02/01 A3012 RMK A01 T00180008  RH  093%=      5-min Rain = 0
KST2 140751Z 00000KT 02/01 A3012 RMK A01 T00180008  RH  093%=      5-min Rain = 0
KST2 140752Z 00000KT 02/01 A3012 RMK A01 T00180008  RH  093%=      5-min Rain = 0
KST2 140753Z 22000KT 02/01 A3012 RMK A01 T00180008  RH  093%=      5-min Rain = 0
KST2 140754Z 22000KT 02/01 A3012 RMK A01 T00190008  RH  093%=      5-min Rain = 0
KST2 140755Z 22000KT 02/01 A3012 RMK A01 T00180008  RH  093%=      5-min Rain = 0
KST2 140756Z 22000KT 02/01 A3012 RMK A01 T00180007  RH  093%=      5-min Rain = 0
KST2 140757Z 22000KT 02/01 A3012 RMK A01 T00170007  RH  093%=      5-min Rain = 0
KST2 140758Z 22001KT 02/01 A3012 RMK A01 T00170007  RH  093%=      5-min Rain = 0
KST2 140759Z 23001KT 02/01 A3012 RMK A01 T00170006  RH  093%=      5-min Rain = 0
KST2 140800Z 24002KT 02/01 A3012 RMK A01 T00170006  RH  093%=      5-min Rain = 0
KST2 140801Z 25002KT 02/01 A3013 RMK A01 T00160006  RH  093%=      5-min Rain = 0
KST2 140802Z 25002KT 02/01 A3013 RMK A01 T00160006  RH  093%=      5-min Rain = 0
KST2 140803Z 25002KT 02/01 A3013 RMK A01 T00160005  RH  093%=      5-min Rain = 0
KST2 140804Z 26002KT 02/01 A3013 RMK A01 T00150005  RH  093%=      5-min Rain = 0
KST2 140805Z 26002KT 02/01 A3013 RMK A01 T00150005  RH  093%=      5-min Rain = 0
KST2 140806Z 26002KT 01/00 A3013 RMK A01 T00140004  RH  093%=      5-min Rain = 0
KST2 140807Z 26003KT 01/00 A3013 RMK A01 T00140003  RH  093%=      5-min Rain = 0
KST2 140808Z 26003KT 01/00 A3013 RMK A01 T00130003  RH  093%=      5-min Rain = 0
KST2 140809Z 26003KT 01/00 A3013 RMK A01 T00130004  RH  093%=      5-min Rain = 0
KST2 140810Z 26003KT 01/00 A3013 RMK A01 T00130004  RH  094%=      5-min Rain = 0
KST2 140811Z 26003KT 01/00 A3013 RMK A01 T00130004  RH  094%=      5-min Rain = 0
KST2 140812Z 26003KT 01/00 A3013 RMK A01 T00130004  RH  094%=      5-min Rain = 0
KST2 140813Z 26002KT 01/01 A3013 RMK A01 T00130005  RH  094%=      5-min Rain = 0
KST2 140814Z 27002KT 01/01 A3013 RMK A01 T00130005  RH  094%=      5-min Rain = 0
KST2 140815Z 28003KT 01/01 A3013 RMK A01 T00130005  RH  094%=      5-min Rain = 0
KST2 140816Z 28003KT 01/01 A3013 RMK A01 T00130005  RH  094%=      5-min Rain = 0
KST2 140817Z 28003KT 01/01 A3013 RMK A01 T00130005  RH  094%=      5-min Rain = 0
KST2 140818Z 28003KT 01/01 A3013 RMK A01 T00130005  RH  094%=      5-min Rain = 0
KST2 140819Z 29003KT 01/01 A3013 RMK A01 T00130005  RH  094%=      5-min Rain = 0
KST2 140820Z 29004KT 01/01 A3013 RMK A01 T00130005  RH  094%=      5-min Rain = 0
KST2 140821Z 30004KT 01/01 A3013 RMK A01 T00130005  RH  094%=      5-min Rain = 0
KST2 140822Z 30004KT 01/01 A3013 RMK A01 T00130005  RH  094%=      5-min Rain = 0
KST2 140823Z 29004KT 01/01 A3012 RMK A01 T00130005  RH  094%=      5-min Rain = 0
KST2 140824Z 29005KT 01/01 A3012 RMK A01 T00140006  RH  095%=      5-min Rain = 0
KST2 140825Z 29005KT 01/01 A3012 RMK A01 T00140006  RH  095%=      5-min Rain = 0
KST2 140826Z 29005KT 02/01 A3012 RMK A01 T00150007  RH  095%=      5-min Rain = 0
KST2 140827Z 30004KT 02/01 A3012 RMK A01 T00150007  RH  095%=      5-min Rain = 0
KST2 140828Z 30004KT 02/01 A3012 RMK A01 T00150007  RH  095%=      5-min Rain = 0
KST2 140829Z 30004KT 02/01 A3013 RMK A01 T00150007  RH  095%=      5-min Rain = 0
KST2 140830Z 30004KT 02/01 A3013 RMK A01 T00150007  RH  094%=      5-min Rain = 0
KST2 140831Z 30005KT 02/01 A3012 RMK A01 T00150007  RH  094%=      5-min Rain = 0
KST2 140832Z 30005KT 02/01 A3012 RMK A01 T00150007  RH  094%=      5-min Rain = 0
KST2 140833Z 30006KT 02/01 A3012 RMK A01 T00150007  RH  094%=      5-min Rain = 0
KST2 140834Z 30006KT 02/01 A3012 RMK A01 T00150007  RH  094%=      5-min Rain = 0
KST2 140835Z 30005KT 02/01 A3012 RMK A01 T00150006  RH  094%=      5-min Rain = 0
KST2 140836Z 31005KT 02/01 A3012 RMK A01 T00150006  RH  094%=      5-min Rain = 0
KST2 140837Z 31005KT 01/01 A3012 RMK A01 T00140006  RH  094%=      5-min Rain = 0
KST2 140838Z 31005KT 01/01 A3013 RMK A01 T00140006  RH  094%=      5-min Rain = 0
KST2 140839Z 31005KT 01/01 A3013 RMK A01 T00140006  RH  094%=      5-min Rain = 0
KST2 140840Z 31005KT 01/01 A3013 RMK A01 T00140005  RH  094%=      5-min Rain = 0
KST2 140841Z 31005KT 01/01 A3013 RMK A01 T00130005  RH  094%=      5-min Rain = 0
KST2 140842Z 31005KT 01/01 A3013 RMK A01 T00130005  RH  094%=      5-min Rain = 0
KST2 140843Z 31006KT 01/00 A3013 RMK A01 T00130004  RH  094%=      5-min Rain = 0
KST2 140844Z 31005KT 01/00 A3013 RMK A01 T00130004  RH  094%=      5-min Rain = 0
KST2 140845Z 31006KT 01/00 A3013 RMK A01 T00130004  RH  094%=      5-min Rain = 0
KST2 140846Z 32005KT 01/00 A3013 RMK A01 T00120004  RH  094%=      5-min Rain = 0
KST2 140847Z 33005KT 01/00 A3013 RMK A01 T00120004  RH  094%=      5-min Rain = 0
KST2 140848Z 34004KT 01/00 A3013 RMK A01 T00120003  RH  094%=      5-min Rain = 0
KST2 140849Z 34004KT 01/00 A3013 RMK A01 T00110002  RH  094%=      5-min Rain = 0
KST2 140850Z 34004KT 01/00 A3013 RMK A01 T00090000  RH  094%=      5-min Rain = 0
KST2 140851Z 34004KT 01/M00 A3013 RMK A01 T00081001  RH  093%=      5-min Rain = 0
KST2 140852Z 34004KT 01/M00 A3013 RMK A01 T00071003  RH  093%=      5-min Rain = 0
KST2 140853Z 34004KT 01/M00 A3013 RMK A01 T00061004  RH  093%=      5-min Rain = 0
KST2 140854Z 35004KT 01/M01 A3013 RMK A01 T00051005  RH  093%=      5-min Rain = 0
KST2 140855Z 34004KT 00/M01 A3013 RMK A01 T00041006  RH  093%=      5-min Rain = 0
KST2 140856Z 34004KT 00/M01 A3013 RMK A01 T00031007  RH  093%=      5-min Rain = 0
KST2 140857Z 33005KT 00/M01 A3013 RMK A01 T00021007  RH  094%=      5-min Rain = 0
KST2 140858Z 33005KT 00/M01 A3013 RMK A01 T00021006  RH  094%=      5-min Rain = 0
KST2 140859Z 34005KT 00/M01 A3013 RMK A01 T00021006  RH  094%=      5-min Rain = 0
KST2 140900Z 34006KT 00/M01 A3013 RMK A01 T00031005  RH  095%=      5-min Rain = 0
KST2 140901Z 33006KT 00/M00 A3013 RMK A01 T00031004  RH  095%=      5-min Rain = 0
KST2 140902Z 33005KT 00/M00 A3013 RMK A01 T00041003  RH  095%=      5-min Rain = 0
KST2 140903Z 35005KT 01/M00 A3013 RMK A01 T00051002  RH  095%=      5-min Rain = 0
KST2 140904Z 00005KT 01/M00 A3013 RMK A01 T00051002  RH  095%=      5-min Rain = 0
KST2 140905Z 00005KT 01/M00 A3013 RMK A01 T00051002  RH  095%=      5-min Rain = 0
KST2 140906Z 36005KT 00/M00 A3013 RMK A01 T00041004  RH  095%=      5-min Rain = 0
KST2 140907Z 35005KT 00/M01 A3013 RMK A01 T00031005  RH  094%=      5-min Rain = 0
KST2 140908Z 35005KT 00/M01 A3013 RMK A01 T00031005  RH  095%=      5-min Rain = 0
KST2 140909Z 34005KT 00/M01 A3014 RMK A01 T00031005  RH  095%=      5-min Rain = 0
KST2 140910Z 34005KT 00/M00 A3014 RMK A01 T00031004  RH  095%=      5-min Rain = 0
KST2 140911Z 34005KT 00/M00 A3014 RMK A01 T00031004  RH  095%=      5-min Rain = 0
KST2 140912Z 35005KT 00/M00 A3014 RMK A01 T00041003  RH  095%=      5-min Rain = 0
KST2 140913Z 35005KT 00/M00 A3014 RMK A01 T00041003  RH  095%=      5-min Rain = 0
KST2 140914Z 35005KT 00/M00 A3014 RMK A01 T00041004  RH  095%=      5-min Rain = 0
KST2 140915Z 35005KT 00/M00 A3014 RMK A01 T00031004  RH  095%=      5-min Rain = 0
KST2 140916Z 35006KT 00/M01 A3014 RMK A01 T00031005  RH  095%=      5-min Rain = 0
KST2 140917Z 36006KT 00/M01 A3014 RMK A01 T00021005  RH  095%=      5-min Rain = 0
KST2 140918Z 00006KT 00/M01 A3014 RMK A01 T00011007  RH  094%=      5-min Rain = 0
KST2 140919Z 00006KT 00/M01 A3014 RMK A01 T00011007  RH  094%=      5-min Rain = 0
KST2 140920Z 00007KT 00/01 A3014 RMK A01 T000000-8  RH  094%=      5-min Rain = 0
KST2 140921Z 00007KT 00/01 A3014 RMK A01 T00-000-8  RH  095%=      5-min Rain = 0
KST2 140922Z 00007KT 00/01 A3014 RMK A01 T00-000-7  RH  095%=      5-min Rain = 0
KST2 140923Z 00007KT 00/01 A3014 RMK A01 T00-000-8  RH  095%=      5-min Rain = 0
KST2 140924Z 00007KT 00/01 A3014 RMK A01 T00-000-7  RH  095%=      5-min Rain = 0
KST2 140925Z 00007KT 00/01 A3014 RMK A01 T00-000-7  RH  095%=      5-min Rain = 0
KST2 140926Z 00008KT 00/01 A3014 RMK A01 T00-000-7  RH  095%=      5-min Rain = 0
KST2 140927Z 00008KT 00/M01 A3014 RMK A01 T00011006  RH  095%=      5-min Rain = 0
KST2 140928Z 00008KT 00/M01 A3014 RMK A01 T00011005  RH  096%=      5-min Rain = 0
KST2 140929Z 36007KT 00/M00 A3014 RMK A01 T00021004  RH  096%=      5-min Rain = 0
KST2 140930Z 35007KT 00/M00 A3014 RMK A01 T00041002  RH  096%=      5-min Rain = 0
KST2 140931Z 36007KT 01/M00 A3015 RMK A01 T00051001  RH  096%=      5-min Rain = 0
KST2 140932Z 00007KT 01/M00 A3015 RMK A01 T00051001  RH  096%=      5-min Rain = 0
KST2 140933Z 00007KT 01/M00 A3015 RMK A01 T00051001  RH  096%=      5-min Rain = 0
KST2 140934Z 00007KT 01/M00 A3015 RMK A01 T00051001  RH  096%=      5-min Rain = 0
KST2 140935Z 00007KT 01/M00 A3015 RMK A01 T00051001  RH  096%=      5-min Rain = 0
KST2 140936Z 35007KT 01/M00 A3015 RMK A01 T00051001  RH  096%=      5-min Rain = 0
KST2 140937Z 35007KT 01/M00 A3015 RMK A01 T00051001  RH  096%=      5-min Rain = 0
KST2 140938Z 36007KT 01/M00 A3015 RMK A01 T00051001  RH  096%=      5-min Rain = 0
KST2 140939Z 00007KT 01/M00 A3015 RMK A01 T00051001  RH  096%=      5-min Rain = 0
KST2 140940Z 00007KT 01/M00 A3015 RMK A01 T00051001  RH  096%=      5-min Rain = 0
KST2 140941Z 00007KT 01/M00 A3015 RMK A01 T00051002  RH  096%=      5-min Rain = 0
KST2 140942Z 00007KT 01/M00 A3014 RMK A01 T00051001  RH  096%=      5-min Rain = 0
KST2 140943Z 01007KT 01/M00 A3015 RMK A01 T00051001  RH  096%=      5-min Rain = 0
KST2 140944Z 01007KT 01/M00 A3015 RMK A01 T00051001  RH  096%=      5-min Rain = 0
KST2 140945Z 00008KT 01/M00 A3015 RMK A01 T00051001  RH  096%=      5-min Rain = 0
KST2 140946Z 35008KT 01/M00 A3014 RMK A01 T00051001  RH  096%=      5-min Rain = 0
KST2 140947Z 35008KT 01/00 A3014 RMK A01 T000600-0  RH  096%=      5-min Rain = 0
KST2 140948Z 36007KT 01/00 A3014 RMK A01 T00060001  RH  096%=      5-min Rain = 0
KST2 140949Z 00007KT 01/00 A3015 RMK A01 T00070001  RH  096%=      5-min Rain = 0
KST2 140950Z 35007KT 01/00 A3015 RMK A01 T00070001  RH  096%=      5-min Rain = 0
KST2 140951Z 36006KT 01/00 A3015 RMK A01 T00070001  RH  096%=      5-min Rain = 0
KST2 140952Z 01006KT 01/00 A3015 RMK A01 T00070001  RH  096%=      5-min Rain = 0
KST2 140953Z 01005KT 01/00 A3015 RMK A01 T00070001  RH  096%=      5-min Rain = 0
KST2 140954Z 36005KT 01/00 A3015 RMK A01 T00070001  RH  096%=      5-min Rain = 0
KST2 140955Z 00005KT 01/00 A3015 RMK A01 T00060000  RH  096%=      5-min Rain = 0
KST2 140956Z 01005KT 01/00 A3015 RMK A01 T00060000  RH  096%=      5-min Rain = 0
KST2 140957Z 01005KT 01/00 A3015 RMK A01 T000600-0  RH  096%=      5-min Rain = 0
KST2 140958Z 00005KT 01/M00 A3015 RMK A01 T00051001  RH  096%=      5-min Rain = 0
KST2 140959Z 00005KT 00/M00 A3015 RMK A01 T00041002  RH  096%=      5-min Rain = 0
KST2 141000Z 01005KT 00/M00 A3015 RMK A01 T00041002  RH  096%=      5-min Rain = 0
KST2 141001Z 02004KT 00/M00 A3015 RMK A01 T00041002  RH  096%=      5-min Rain = 0
KST2 141002Z 02004KT 00/M00 A3016 RMK A01 T00031003  RH  096%=      5-min Rain = 0
KST2 141003Z 02003KT 00/M00 A3016 RMK A01 T00031003  RH  096%=      5-min Rain = 0
KST2 141004Z 02003KT 00/M00 A3016 RMK A01 T00021004  RH  096%=      5-min Rain = 0
KST2 141005Z 02002KT 00/M00 A3016 RMK A01 T00021004  RH  096%=      5-min Rain = 0
KST2 141006Z 03002KT 00/M01 A3016 RMK A01 T00011005  RH  096%=      5-min Rain = 0
KST2 141007Z 03002KT 00/M01 A3016 RMK A01 T00011005  RH  096%=      5-min Rain = 0
KST2 141008Z 03000KT 00/M01 A3016 RMK A01 T00011005  RH  096%=      5-min Rain = 0
KST2 141009Z 03000KT 00/M00 A3016 RMK A01 T00011004  RH  096%=      5-min Rain = 0
KST2 141010Z 03000KT 00/M01 A3016 RMK A01 T00011005  RH  096%=      5-min Rain = 0
KST2 141011Z 03000KT 00/M00 A3016 RMK A01 T00011004  RH  096%=      5-min Rain = 0
KST2 141012Z 03000KT 00/M00 A3017 RMK A01 T00011004  RH  096%=      5-min Rain = 0
KST2 141013Z 03001KT 00/M00 A3017 RMK A01 T00011004  RH  096%=      5-min Rain = 0
KST2 141014Z 03001KT 00/M00 A3017 RMK A01 T00021004  RH  096%=      5-min Rain = 0
KST2 141015Z 03001KT 00/M00 A3017 RMK A01 T00011004  RH  096%=      5-min Rain = 0
KST2 141016Z 03001KT 00/M00 A3017 RMK A01 T00011004  RH  096%=      5-min Rain = 0
KST2 141017Z 03001KT 00/M00 A3017 RMK A01 T00011004  RH  096%=      5-min Rain = 0
KST2 141018Z 03001KT 00/01 A3017 RMK A01 T000000-5  RH  096%=      5-min Rain = 0
KST2 141019Z 03001KT 00/M01 A3017 RMK A01 T00011005  RH  096%=      5-min Rain = 0
KST2 141020Z 03001KT 00/M01 A3017 RMK A01 T00011005  RH  096%=      5-min Rain = 0
KST2 141021Z 03001KT 00/01 A3017 RMK A01 T000000-6  RH  096%=      5-min Rain = 0
KST2 141022Z 03001KT 00/01 A3017 RMK A01 T000000-6  RH  096%=      5-min Rain = 0
KST2 141023Z 03001KT 00/01 A3017 RMK A01 T000000-5  RH  096%=      5-min Rain = 0
KST2 141024Z 03001KT 00/01 A3017 RMK A01 T000000-5  RH  096%=      5-min Rain = 0
KST2 141025Z 03002KT 00/M01 A3017 RMK A01 T00011005  RH  096%=      5-min Rain = 0
KST2 141026Z 03002KT 00/M01 A3017 RMK A01 T00011005  RH  096%=      5-min Rain = 0
KST2 141027Z 03002KT 00/M00 A3017 RMK A01 T00011004  RH  096%=      5-min Rain = 0
KST2 141028Z 03002KT 00/M00 A3017 RMK A01 T00011004  RH  096%=      5-min Rain = 0
KST2 141029Z 03002KT 00/M00 A3017 RMK A01 T00011004  RH  096%=      5-min Rain = 0
KST2 141030Z 03002KT 00/M00 A3017 RMK A01 T00011004  RH  096%=      5-min Rain = 0
KST2 141031Z 03002KT 00/M00 A3017 RMK A01 T00021004  RH  096%=      5-min Rain = 0
KST2 141032Z 03001KT 00/M00 A3017 RMK A01 T00011004  RH  096%=      5-min Rain = 0
KST2 141033Z 03001KT 00/M00 A3017 RMK A01 T00011004  RH  096%=      5-min Rain = 0
KST2 141034Z 03001KT 00/M00 A3018 RMK A01 T00011004  RH  096%=      5-min Rain = 0
KST2 141035Z 03001KT 00/M00 A3018 RMK A01 T00011004  RH  096%=      5-min Rain = 0
KST2 141036Z 03000KT 00/M00 A3017 RMK A01 T00011004  RH  096%=      5-min Rain = 0
KST2 141037Z 03001KT 00/M00 A3018 RMK A01 T00011004  RH  096%=      5-min Rain = 0
KST2 141038Z 03001KT 00/M01 A3018 RMK A01 T00011005  RH  096%=      5-min Rain = 0
KST2 141039Z 03001KT 00/01 A3018 RMK A01 T000000-5  RH  096%=      5-min Rain = 0
KST2 141040Z 03000KT 00/01 A3017 RMK A01 T000000-5  RH  096%=      5-min Rain = 0
KST2 141041Z 00000KT 00/01 A3017 RMK A01 T00-000-6  RH  096%=      5-min Rain = 0
KST2 141042Z 00000KT M00/M01 A3017 RMK A01 T10011006  RH  096%=      5-min Rain = 0
KST2 141043Z 00000KT M00/M01 A3018 RMK A01 T10011006  RH  096%=      5-min Rain = 0
KST2 141044Z 00000KT M00/M01 A3018 RMK A01 T10011006  RH  096%=      5-min Rain = 0
KST2 141045Z 00000KT M00/M01 A3018 RMK A01 T10011006  RH  096%=      5-min Rain = 0
KST2 141046Z 00000KT M00/M01 A3018 RMK A01 T10011006  RH  096%=      5-min Rain = 0
KST2 141047Z 00000KT M00/M01 A3018 RMK A01 T10011006  RH  096%=      5-min Rain = 0
KST2 141048Z 00000KT M00/M01 A3017 RMK A01 T10011006  RH  096%=      5-min Rain = 0
KST2 141049Z 03000KT M00/M01 A3018 RMK A01 T10011006  RH  096%=      5-min Rain = 0
KST2 141050Z 03001KT M00/M01 A3018 RMK A01 T10011006  RH  096%=      5-min Rain = 0
KST2 141051Z 03000KT M00/M01 A3018 RMK A01 T10011006  RH  096%=      5-min Rain = 0
KST2 141052Z 02000KT M00/M01 A3018 RMK A01 T10011006  RH  096%=      5-min Rain = 0
KST2 141053Z 01001KT M00/M01 A3018 RMK A01 T10011006  RH  097%=      5-min Rain = 0
KST2 141054Z 01001KT M00/M01 A3018 RMK A01 T10011006  RH  097%=      5-min Rain = 0
KST2 141055Z 00002KT M00/M01 A3018 RMK A01 T10011006  RH  097%=      5-min Rain = 0
KST2 141056Z 00002KT M00/M01 A3018 RMK A01 T10011006  RH  097%=      5-min Rain = 0
KST2 141057Z 35002KT M00/M01 A3018 RMK A01 T10011006  RH  097%=      5-min Rain = 0
KST2 141058Z 34002KT M00/M01 A3018 RMK A01 T10011006  RH  097%=      5-min Rain = 0
KST2 141059Z 33001KT M00/M01 A3018 RMK A01 T10011006  RH  096%=      5-min Rain = 0
KST2 141100Z 34001KT M00/M01 A3019 RMK A01 T10011006  RH  096%=      5-min Rain = 0
KST2 141101Z 02001KT M00/M01 A3019 RMK A01 T10011006  RH  096%=      5-min Rain = 0
KST2 141102Z 02002KT M00/M01 A3019 RMK A01 T10011006  RH  096%=      5-min Rain = 0
KST2 141103Z 00002KT M00/M01 A3019 RMK A01 T10011006  RH  097%=      5-min Rain = 0
KST2 141104Z 01001KT M00/M01 A3019 RMK A01 T10011006  RH  097%=      5-min Rain = 0
KST2 141105Z 03002KT M00/M01 A3019 RMK A01 T10011006  RH  097%=      5-min Rain = 0
KST2 141106Z 03001KT M00/M01 A3019 RMK A01 T10011005  RH  097%=      5-min Rain = 0
KST2 141107Z 03001KT 00/01 A3019 RMK A01 T00-000-5  RH  097%=      5-min Rain = 0
KST2 141108Z 03002KT 00/00 A3019 RMK A01 T000000-4  RH  097%=      5-min Rain = 0
KST2 141109Z 03002KT 00/M00 A302 RMK A01 T00011004  RH  097%=      5-min Rain = 0
KST2 141110Z 03002KT 00/M00 A302 RMK A01 T00011004  RH  097%=      5-min Rain = 0
KST2 141111Z 03002KT 00/M00 A3019 RMK A01 T00011004  RH  097%=      5-min Rain = 0
KST2 141112Z 03002KT 00/M00 A302 RMK A01 T00011003  RH  097%=      5-min Rain = 0
KST2 141113Z 03003KT 00/M00 A302 RMK A01 T00011004  RH  097%=      5-min Rain = 0
KST2 141114Z 04002KT 00/M00 A302 RMK A01 T00011004  RH  097%=      5-min Rain = 0
KST2 141115Z 04002KT 00/M00 A302 RMK A01 T00011004  RH  097%=      5-min Rain = 0
KST2 141116Z 04002KT 00/01 A302 RMK A01 T000000-5  RH  096%=      5-min Rain = 0
KST2 141117Z 04002KT 00/01 A302 RMK A01 T000000-5  RH  096%=      5-min Rain = 0
KST2 141118Z 04002KT 00/01 A302 RMK A01 T000000-5  RH  096%=      5-min Rain = 0
KST2 141119Z 04002KT 00/01 A302 RMK A01 T00-000-5  RH  096%=      5-min Rain = 0
KST2 141120Z 04002KT M00/M01 A302 RMK A01 T10011006  RH  096%=      5-min Rain = 0
KST2 141121Z 04002KT M00/M01 A302 RMK A01 T10011006  RH  096%=      5-min Rain = 0
KST2 141122Z 04002KT M00/M01 A302 RMK A01 T10011006  RH  096%=      5-min Rain = 0
KST2 141123Z 04002KT M00/M01 A302 RMK A01 T10011006  RH  096%=      5-min Rain = 0
KST2 141124Z 04002KT M00/M01 A3021 RMK A01 T10011006  RH  096%=      5-min Rain = 0
KST2 141125Z 04002KT M00/M01 A3021 RMK A01 T10011006  RH  096%=      5-min Rain = 0
KST2 141126Z 04002KT M00/M01 A3021 RMK A01 T10011006  RH  096%=      5-min Rain = 0
KST2 141127Z 04002KT M00/M01 A3021 RMK A01 T10011006  RH  096%=      5-min Rain = 0
KST2 141128Z 04002KT M00/M01 A3021 RMK A01 T10011006  RH  096%=      5-min Rain = 0
KST2 141129Z 04002KT M00/M01 A3021 RMK A01 T10011006  RH  096%=      5-min Rain = 0
KST2 141130Z 04002KT M00/M01 A3021 RMK A01 T10011007  RH  096%=      5-min Rain = 0
KST2 141131Z 04003KT M00/M01 A3021 RMK A01 T10011006  RH  096%=      5-min Rain = 0
KST2 141132Z 04003KT M00/M01 A3021 RMK A01 T10011007  RH  096%=      5-min Rain = 0
KST2 141133Z 04003KT M00/M01 A3021 RMK A01 T10011007  RH  096%=      5-min Rain = 0
KST2 141134Z 04003KT M00/M01 A3021 RMK A01 T10011006  RH  096%=      5-min Rain = 0
KST2 141135Z 03003KT M00/M01 A3021 RMK A01 T10011006  RH  096%=      5-min Rain = 0
KST2 141136Z 03004KT M00/M01 A3021 RMK A01 T10011006  RH  096%=      5-min Rain = 0
KST2 141137Z 03004KT M00/M01 A3021 RMK A01 T10011006  RH  096%=      5-min Rain = 0
KST2 141138Z 03004KT M00/M01 A3021 RMK A01 T10011006  RH  096%=      5-min Rain = 0
KST2 141139Z 02004KT M00/M01 A3021 RMK A01 T10021007  RH  096%=      5-min Rain = 0
KST2 141140Z 02004KT M00/M01 A3021 RMK A01 T10031008  RH  096%=      5-min Rain = 0
KST2 141141Z 02005KT M00/M01 A3021 RMK A01 T10041009  RH  096%=      5-min Rain = 0
KST2 141142Z 01005KT M00/M01 A3021 RMK A01 T10041010  RH  096%=      5-min Rain = 0
KST2 141143Z 01005KT M00/M01 A3021 RMK A01 T10041010  RH  096%=      5-min Rain = 0
KST2 141144Z 01005KT M00/M01 A3021 RMK A01 T10041010  RH  096%=      5-min Rain = 0
KST2 141145Z 00006KT M01/M01 A3021 RMK A01 T10051010  RH  096%=      5-min Rain = 0
KST2 141146Z 00006KT M01/M01 A3021 RMK A01 T10051010  RH  096%=      5-min Rain = 0
KST2 141147Z 00006KT M01/M01 A3021 RMK A01 T10051010  RH  096%=      5-min Rain = 0
KST2 141148Z 00006KT M01/M01 A3021 RMK A01 T10051010  RH  096%=      5-min Rain = 0
KST2 141149Z 36006KT M01/M01 A3021 RMK A01 T10051010  RH  096%=      5-min Rain = 0
KST2 141150Z 35006KT M00/M01 A3021 RMK A01 T10041009  RH  096%=      5-min Rain = 0
KST2 141151Z 35006KT M00/M01 A3021 RMK A01 T10041009  RH  096%=      5-min Rain = 0
KST2 141152Z 35006KT M00/M01 A3021 RMK A01 T10031008  RH  097%=      5-min Rain = 0
KST2 141153Z 35007KT M00/M01 A3021 RMK A01 T10031008  RH  097%=      5-min Rain = 0
KST2 141154Z 35006KT M00/M01 A3021 RMK A01 T10031008  RH  097%=      5-min Rain = 0
KST2 141155Z 35007KT M00/M01 A3021 RMK A01 T10031008  RH  097%=      5-min Rain = 0
KST2 141156Z 35007KT M00/M01 A3021 RMK A01 T10031008  RH  097%=      5-min Rain = 0
KST2 141157Z 35007KT M00/M01 A3021 RMK A01 T10031008  RH  097%=      5-min Rain = 0
KST2 141158Z 35007KT M00/M01 A3021 RMK A01 T10021007  RH  096%=      5-min Rain = 0
KST2 141159Z 35007KT M00/M01 A3021 RMK A01 T10021007  RH  096%=      5-min Rain = 0
KST2 141200Z 35007KT M00/M01 A3021 RMK A01 T10031008  RH  096%=      5-min Rain = 0
KST2 141201Z 36008KT M00/M01 A3021 RMK A01 T10031008  RH  096%=      5-min Rain = 0
KST2 141202Z 36008KT M00/M01 A3022 RMK A01 T10031009  RH  096%=      5-min Rain = 0
KST2 141203Z 00007KT M00/M01 A3022 RMK A01 T10041009  RH  096%=      5-min Rain = 0
KST2 141204Z 00007KT M00/M01 A3022 RMK A01 T10041009  RH  096%=      5-min Rain = 0
KST2 141205Z 01008KT M00/M01 A3022 RMK A01 T10041009  RH  096%=      5-min Rain = 0
KST2 141206Z 01008KT M00/M01 A3022 RMK A01 T10041009  RH  096%=      5-min Rain = 0
KST2 141207Z 01008KT M01/M01 A3022 RMK A01 T10051010  RH  096%=      5-min Rain = 0
KST2 141208Z 01008KT M01/M01 A3022 RMK A01 T10051011  RH  096%=      5-min Rain = 0
KST2 141209Z 02008KT M01/M01 A3022 RMK A01 T10051011  RH  095%=      5-min Rain = 0
KST2 141210Z 02008KT M01/M01 A3022 RMK A01 T10051012  RH  095%=      5-min Rain = 0
KST2 141211Z 02008KT M01/M01 A3022 RMK A01 T10051012  RH  095%=      5-min Rain = 0
KST2 141212Z 01008KT M01/M01 A3022 RMK A01 T10051012  RH  095%=      5-min Rain = 0
KST2 141213Z 01008KT M01/M01 A3022 RMK A01 T10051012  RH  095%=      5-min Rain = 0
KST2 141214Z 01007KT M01/M01 A3022 RMK A01 T10051012  RH  095%=      5-min Rain = 0
KST2 141215Z 01007KT M01/M01 A3022 RMK A01 T10051012  RH  095%=      5-min Rain = 0
KST2 141216Z 01007KT M01/M01 A3022 RMK A01 T10051012  RH  095%=      5-min Rain = 0
KST2 141217Z 01007KT M01/M01 A3022 RMK A01 T10051012  RH  095%=      5-min Rain = 0
KST2 141218Z 01007KT M01/M01 A3022 RMK A01 T10051013  RH  094%=      5-min Rain = 0
KST2 141219Z 01007KT M01/M01 A3022 RMK A01 T10051013  RH  094%=      5-min Rain = 0
KST2 141220Z 00007KT M01/M01 A3022 RMK A01 T10051013  RH  094%=      5-min Rain = 0
KST2 141221Z 00007KT M01/M01 A3023 RMK A01 T10051013  RH  094%=      5-min Rain = 0
KST2 141222Z 01007KT M01/M01 A3023 RMK A01 T10051013  RH  094%=      5-min Rain = 0
KST2 141223Z 01007KT M01/M01 A3023 RMK A01 T10051013  RH  094%=      5-min Rain = 0
KST2 141224Z 01007KT M01/M01 A3023 RMK A01 T10051014  RH  094%=      5-min Rain = 0
KST2 141225Z 00007KT M01/M01 A3023 RMK A01 T10051013  RH  094%=      5-min Rain = 0
KST2 141226Z 00007KT M01/M01 A3023 RMK A01 T10061014  RH  094%=      5-min Rain = 0
KST2 141227Z 36007KT M01/M01 A3023 RMK A01 T10061014  RH  094%=      5-min Rain = 0
KST2 141228Z 36007KT M01/M01 A3023 RMK A01 T10061014  RH  094%=      5-min Rain = 0
KST2 141229Z 36007KT M01/M01 A3023 RMK A01 T10061014  RH  094%=      5-min Rain = 0
KST2 141230Z 36007KT M01/M01 A3023 RMK A01 T10061014  RH  094%=      5-min Rain = 0
KST2 141231Z 36007KT M01/M01 A3023 RMK A01 T10061014  RH  094%=      5-min Rain = 0
KST2 141232Z 35006KT M01/M01 A3023 RMK A01 T10061014  RH  094%=      5-min Rain = 0
KST2 141233Z 35005KT M01/M01 A3024 RMK A01 T10061014  RH  095%=      5-min Rain = 0
KST2 141234Z 35005KT M01/M01 A3024 RMK A01 T10061014  RH  095%=      5-min Rain = 0
KST2 141235Z 35006KT M01/M01 A3024 RMK A01 T10061014  RH  095%=      5-min Rain = 0
KST2 141236Z 35006KT M01/M01 A3024 RMK A01 T10061013  RH  095%=      5-min Rain = 0
KST2 141237Z 36007KT M01/M01 A3024 RMK A01 T10061013  RH  095%=      5-min Rain = 0
KST2 141238Z 36006KT M01/M01 A3024 RMK A01 T10061013  RH  095%=      5-min Rain = 0
KST2 141239Z 00006KT M01/M01 A3024 RMK A01 T10061014  RH  095%=      5-min Rain = 0
KST2 141240Z 00006KT M01/M01 A3024 RMK A01 T10071014  RH  095%=      5-min Rain = 0
KST2 141241Z 01006KT M01/M01 A3024 RMK A01 T10071014  RH  095%=      5-min Rain = 0
KST2 141242Z 01005KT M01/M01 A3024 RMK A01 T10071014  RH  095%=      5-min Rain = 0
KST2 141243Z 01005KT M01/M02 A3025 RMK A01 T10081015  RH  095%=      5-min Rain = 0
KST2 141244Z 01004KT M01/M02 A3025 RMK A01 T10081016  RH  095%=      5-min Rain = 0
KST2 141245Z 01004KT M01/M02 A3025 RMK A01 T10091016  RH  095%=      5-min Rain = 0
KST2 141246Z 01004KT M01/M02 A3025 RMK A01 T10091017  RH  095%=      5-min Rain = 0
KST2 141247Z 01004KT M01/M02 A3025 RMK A01 T10101017  RH  095%=      5-min Rain = 0
KST2 141248Z 01004KT M01/M02 A3025 RMK A01 T10101018  RH  095%=      5-min Rain = 0
KST2 141249Z 02004KT M01/M02 A3025 RMK A01 T10111018  RH  095%=      5-min Rain = 0
KST2 141250Z 02004KT M01/M02 A3025 RMK A01 T10111018  RH  095%=      5-min Rain = 0
KST2 141251Z 03004KT M01/M02 A3025 RMK A01 T10111018  RH  095%=      5-min Rain = 0
KST2 141252Z 02003KT M01/M02 A3025 RMK A01 T10111018  RH  095%=      5-min Rain = 0
KST2 141253Z 03003KT M01/M02 A3025 RMK A01 T10111018  RH  095%=      5-min Rain = 0
KST2 141254Z 03003KT M01/M02 A3025 RMK A01 T10111018  RH  095%=      5-min Rain = 0
KST2 141255Z 03003KT M01/M02 A3025 RMK A01 T10111018  RH  095%=      5-min Rain = 0
KST2 141256Z 03003KT M01/M02 A3025 RMK A01 T10111018  RH  095%=      5-min Rain = 0
KST2 141257Z 03003KT M01/M02 A3025 RMK A01 T10111018  RH  095%=      5-min Rain = 0
KST2 141258Z 03003KT M01/M02 A3025 RMK A01 T10111018  RH  095%=      5-min Rain = 0
KST2 141259Z 03003KT M01/M02 A3025 RMK A01 T10111018  RH  095%=      5-min Rain = 0
KST2 141300Z 03003KT M01/M02 A3025 RMK A01 T10111018  RH  095%=      5-min Rain = 0
KST2 141301Z 03003KT M01/M02 A3025 RMK A01 T10111018  RH  095%=      5-min Rain = 0
KST2 141302Z 03003KT M01/M02 A3025 RMK A01 T10111018  RH  095%=      5-min Rain = 0
KST2 141303Z 03004KT M01/M02 A3025 RMK A01 T10121019  RH  095%=      5-min Rain = 0
KST2 141304Z 03004KT M01/M02 A3025 RMK A01 T10121019  RH  095%=      5-min Rain = 0
KST2 141305Z 03004KT M01/M02 A3025 RMK A01 T10121019  RH  095%=      5-min Rain = 0
KST2 141306Z 03004KT M01/M02 A3025 RMK A01 T10121019  RH  095%=      5-min Rain = 0
KST2 141307Z 03004KT M01/M02 A3026 RMK A01 T10131020  RH  095%=      5-min Rain = 0
KST2 141308Z 02004KT M01/M02 A3026 RMK A01 T10131020  RH  095%=      5-min Rain = 0
KST2 141309Z 02004KT M01/M02 A3026 RMK A01 T10131021  RH  095%=      5-min Rain = 0
KST2 141310Z 02004KT M01/M02 A3026 RMK A01 T10141021  RH  095%=      5-min Rain = 0
KST2 141311Z 01004KT M01/M02 A3026 RMK A01 T10141021  RH  095%=      5-min Rain = 0
KST2 141312Z 01005KT M01/M02 A3026 RMK A01 T10141021  RH  095%=      5-min Rain = 0
KST2 141313Z 01005KT M01/M02 A3026 RMK A01 T10141020  RH  095%=      5-min Rain = 0
KST2 141314Z 01005KT M01/M02 A3026 RMK A01 T10141021  RH  095%=      5-min Rain = 0
KST2 141315Z 01005KT M01/M02 A3026 RMK A01 T10141020  RH  095%=      5-min Rain = 0
KST2 141316Z 00005KT M01/M02 A3026 RMK A01 T10131020  RH  095%=      5-min Rain = 0
KST2 141317Z 01006KT M01/M02 A3026 RMK A01 T10131020  RH  095%=      5-min Rain = 0
KST2 141318Z 01006KT M01/M02 A3026 RMK A01 T10121019  RH  095%=      5-min Rain = 0
KST2 141319Z 01006KT M01/M02 A3026 RMK A01 T10121019  RH  095%=      5-min Rain = 0
KST2 141320Z 01006KT M01/M02 A3026 RMK A01 T10121019  RH  095%=      5-min Rain = 0
KST2 141321Z 01006KT M01/M02 A3026 RMK A01 T10121019  RH  095%=      5-min Rain = 0
KST2 141322Z 01006KT M01/M02 A3026 RMK A01 T10111018  RH  095%=      5-min Rain = 0
KST2 141323Z 01006KT M01/M02 A3027 RMK A01 T10111018  RH  095%=      5-min Rain = 0
KST2 141324Z 01006KT M01/M02 A3027 RMK A01 T10101018  RH  095%=      5-min Rain = 0
KST2 141325Z 01006KT M01/M02 A3027 RMK A01 T10101018  RH  095%=      5-min Rain = 0
KST2 141326Z 01006KT M01/M02 A3027 RMK A01 T10101018  RH  095%=      5-min Rain = 0
KST2 141327Z 01005KT M01/M02 A3027 RMK A01 T10101018  RH  094%=      5-min Rain = 0
KST2 141328Z 00006KT M01/M02 A3027 RMK A01 T10091017  RH  094%=      5-min Rain = 0
KST2 141329Z 00006KT M01/M02 A3027 RMK A01 T10091017  RH  094%=      5-min Rain = 0
KST2 141330Z 00006KT M01/M02 A3027 RMK A01 T10091017  RH  094%=      5-min Rain = 0
KST2 141331Z 36007KT M01/M02 A3027 RMK A01 T10081017  RH  094%=      5-min Rain = 0
KST2 141332Z 36007KT M01/M02 A3027 RMK A01 T10081017  RH  094%=      5-min Rain = 0
KST2 141333Z 36007KT M01/M02 A3027 RMK A01 T10081016  RH  094%=      5-min Rain = 0
KST2 141334Z 36007KT M01/M02 A3027 RMK A01 T10071016  RH  094%=      5-min Rain = 0
KST2 141335Z 36008KT M01/M02 A3027 RMK A01 T10071015  RH  094%=      5-min Rain = 0
KST2 141336Z 36007KT M01/M01 A3027 RMK A01 T10061014  RH  094%=      5-min Rain = 0
KST2 141337Z 36008KT M01/M01 A3028 RMK A01 T10061014  RH  094%=      5-min Rain = 0
KST2 141338Z 36008KT M01/M01 A3028 RMK A01 T10061014  RH  094%=      5-min Rain = 0
KST2 141339Z 36008KT M01/M01 A3028 RMK A01 T10051014  RH  094%=      5-min Rain = 0
KST2 141340Z 36008KT M01/M01 A3028 RMK A01 T10051014  RH  094%=      5-min Rain = 0
KST2 141341Z 36008KT M01/M01 A3028 RMK A01 T10051014  RH  094%=      5-min Rain = 0
KST2 141342Z 36007KT M01/M01 A3028 RMK A01 T10051014  RH  094%=      5-min Rain = 0
KST2 141343Z 36007KT M00/M01 A3028 RMK A01 T10041013  RH  094%=      5-min Rain = 0
KST2 141344Z 35007KT M00/M01 A3028 RMK A01 T10041013  RH  094%=      5-min Rain = 0
KST2 141345Z 36006KT M00/M01 A3028 RMK A01 T10041013  RH  094%=      5-min Rain = 0
KST2 141346Z 36006KT M00/M01 A3028 RMK A01 T10041013  RH  094%=      5-min Rain = 0
KST2 141347Z 35007KT M00/M01 A3028 RMK A01 T10031012  RH  094%=      5-min Rain = 0
KST2 141348Z 36007KT M00/M01 A3028 RMK A01 T10021012  RH  094%=      5-min Rain = 0
KST2 141349Z 35007KT M00/M01 A3028 RMK A01 T10031012  RH  093%=      5-min Rain = 0
KST2 141350Z 35007KT M00/M01 A3028 RMK A01 T10031012  RH  093%=      5-min Rain = 0
KST2 141351Z 36008KT M00/M01 A3029 RMK A01 T10021012  RH  093%=      5-min Rain = 0
KST2 141352Z 36008KT M00/M01 A3029 RMK A01 T10021012  RH  093%=      5-min Rain = 0
KST2 141353Z 35008KT M00/M01 A3029 RMK A01 T10021012  RH  093%=      5-min Rain = 0
KST2 141354Z 35007KT M00/M01 A3029 RMK A01 T10031013  RH  093%=      5-min Rain = 0
KST2 141355Z 35008KT M00/M01 A3029 RMK A01 T10021012  RH  093%=      5-min Rain = 0
KST2 141356Z 36008KT M00/M01 A3029 RMK A01 T10021013  RH  093%=      5-min Rain = 0
KST2 141357Z 36008KT M00/M01 A3029 RMK A01 T10021012  RH  093%=      5-min Rain = 0
KST2 141358Z 36008KT M00/M01 A3029 RMK A01 T10021012  RH  093%=      5-min Rain = 0
KST2 141359Z 36009KT M00/M01 A3029 RMK A01 T10021013  RH  093%=      5-min Rain = 0
KST2 141400Z 35008KT M00/M01 A3029 RMK A01 T10021012  RH  093%=      5-min Rain = 0
KST2 141401Z 35007KT M00/M01 A3029 RMK A01 T10021012  RH  093%=      5-min Rain = 0
KST2 141402Z 35007KT M00/M01 A3029 RMK A01 T10021012  RH  093%=      5-min Rain = 0
KST2 141403Z 35008KT M00/M01 A3029 RMK A01 T10011012  RH  092%=      5-min Rain = 0
KST2 141404Z 35008KT M00/M01 A303 RMK A01 T10011012  RH  092%=      5-min Rain = 0
KST2 141405Z 35008KT M00/M01 A303 RMK A01 T10011013  RH  092%=      5-min Rain = 0
KST2 141406Z 36008KT M00/M01 A303 RMK A01 T10011012  RH  092%=      5-min Rain = 0
KST2 141407Z 35008KT M00/M01 A303 RMK A01 T10011012  RH  092%=      5-min Rain = 0
KST2 141408Z 35007KT M00/M01 A303 RMK A01 T10011012  RH  092%=      5-min Rain = 0
KST2 141409Z 35008KT 00/01 A303 RMK A01 T00-00-11  RH  092%=      5-min Rain = 0
KST2 141410Z 35007KT 00/01 A303 RMK A01 T00-00-11  RH  092%=      5-min Rain = 0
KST2 141411Z 35008KT 00/01 A303 RMK A01 T00-00-11  RH  092%=      5-min Rain = 0
KST2 141412Z 35009KT 00/01 A303 RMK A01 T00000-11  RH  092%=      5-min Rain = 0
KST2 141413Z 35009KT 00/M01 A303 RMK A01 T00011011  RH  092%=      5-min Rain = 0
KST2 141414Z 35008KT 00/M01 A3031 RMK A01 T00011011  RH  092%=      5-min Rain = 0
KST2 141415Z 35009KT 00/M01 A3031 RMK A01 T00021010  RH  092%=      5-min Rain = 0
KST2 141416Z 35009KT 00/M01 A3031 RMK A01 T00031010  RH  092%=      5-min Rain = 0
KST2 141417Z 35009KT 00/M01 A3031 RMK A01 T00031010  RH  091%=      5-min Rain = 0
KST2 141418Z 35008KT 00/M01 A3031 RMK A01 T00031009  RH  091%=      5-min Rain = 0
KST2 141419Z 35008KT 00/M01 A3031 RMK A01 T00041008  RH  092%=      5-min Rain = 0
KST2 141420Z 35009KT 00/M01 A3031 RMK A01 T00041008  RH  091%=      5-min Rain = 0
KST2 141421Z 35008KT 00/M01 A3031 RMK A01 T00041009  RH  091%=      5-min Rain = 0
KST2 141422Z 35008KT 00/M01 A3031 RMK A01 T00041009  RH  091%=      5-min Rain = 0
KST2 141423Z 35009KT 01/M01 A3031 RMK A01 T00051009  RH  091%=      5-min Rain = 0
KST2 141424Z 35008KT 01/M01 A3031 RMK A01 T00051008  RH  091%=      5-min Rain = 0
KST2 141425Z 36008KT 01/M01 A3031 RMK A01 T00061007  RH  091%=      5-min Rain = 0
KST2 141426Z 00008KT 01/M01 A3031 RMK A01 T00071007  RH  090%=      5-min Rain = 0
KST2 141427Z 36009KT 01/M01 A3031 RMK A01 T00061008  RH  090%=      5-min Rain = 0
KST2 141428Z 35008KT 01/M01 A3031 RMK A01 T00061009  RH  090%=      5-min Rain = 0
KST2 141429Z 36009KT 01/M01 A3031 RMK A01 T00071008  RH  090%=      5-min Rain = 0
KST2 141430Z 00010KT 01/M01 A3031 RMK A01 T00081008  RH  089%=      5-min Rain = 0
KST2 141431Z 36009KT 01/M01 A3032 RMK A01 T00081008  RH  089%=      5-min Rain = 0
KST2 141432Z 35009KT 01/M01 A3032 RMK A01 T00091007  RH  089%=      5-min Rain = 0
KST2 141433Z 35009KT 01/M01 A3032 RMK A01 T00091007  RH  089%=      5-min Rain = 0
KST2 141434Z 35009KT 01/M01 A3032 RMK A01 T00101007  RH  089%=      5-min Rain = 0
KST2 141435Z 35010KT 01/M01 A3032 RMK A01 T00101006  RH  089%=      5-min Rain = 0
KST2 141436Z 36008KT 01/M01 A3032 RMK A01 T00111006  RH  089%=      5-min Rain = 0
KST2 141437Z 36010KT 01/M01 A3032 RMK A01 T00111006  RH  089%=      5-min Rain = 0
KST2 141438Z 36009KT 01/M01 A3032 RMK A01 T00111007  RH  088%=      5-min Rain = 0
KST2 141439Z 00008KT 01/M01 A3032 RMK A01 T00111007  RH  088%=      5-min Rain = 0
KST2 141440Z 36008KT 01/M01 A3032 RMK A01 T00121006  RH  088%=      5-min Rain = 0
KST2 141441Z 36009KT 01/M01 A3032 RMK A01 T00121005  RH  088%=      5-min Rain = 0
KST2 141442Z 36008KT 01/M00 A3032 RMK A01 T00131004  RH  088%=      5-min Rain = 0
KST2 141443Z 36008KT 01/M00 A3033 RMK A01 T00141003  RH  088%=      5-min Rain = 0
KST2 141444Z 35009KT 02/M00 A3033 RMK A01 T00151003  RH  088%=      5-min Rain = 0
KST2 141445Z 36008KT 02/M00 A3033 RMK A01 T00151004  RH  087%=      5-min Rain = 0
KST2 141446Z 36008KT 02/M00 A3033 RMK A01 T00151004  RH  087%=      5-min Rain = 0
KST2 141447Z 36008KT 02/M00 A3033 RMK A01 T00151004  RH  087%=      5-min Rain = 0
KST2 141448Z 36008KT 02/M00 A3033 RMK A01 T00161004  RH  087%=      5-min Rain = 0
KST2 141449Z 36008KT 02/M00 A3033 RMK A01 T00161004  RH  087%=      5-min Rain = 0
KST2 141450Z 36008KT 02/M00 A3033 RMK A01 T00171004  RH  086%=      5-min Rain = 0
KST2 141451Z 00006KT 02/M00 A3033 RMK A01 T00171004  RH  086%=      5-min Rain = 0
KST2 141452Z 36007KT 02/M00 A3033 RMK A01 T00181002  RH  087%=      5-min Rain = 0
KST2 141453Z 00007KT 02/M00 A3033 RMK A01 T00191002  RH  086%=      5-min Rain = 0
KST2 141454Z 00007KT 02/M00 A3033 RMK A01 T00191003  RH  086%=      5-min Rain = 0
KST2 141455Z 36007KT 02/M00 A3033 RMK A01 T00211001  RH  086%=      5-min Rain = 0
KST2 141456Z 01007KT 02/M00 A3033 RMK A01 T00211001  RH  085%=      5-min Rain = 0
KST2 141457Z 01006KT 02/M00 A3033 RMK A01 T00221001  RH  085%=      5-min Rain = 0
KST2 141458Z 00006KT 02/00 A3033 RMK A01 T00230001  RH  085%=      5-min Rain = 0
KST2 141459Z 01008KT 02/M00 A3033 RMK A01 T00231001  RH  084%=      5-min Rain = 0
KST2 141500Z 01007KT 02/M00 A3033 RMK A01 T00231002  RH  083%=      5-min Rain = 0
KST2 141501Z 01007KT 02/M00 A3033 RMK A01 T00241001  RH  084%=      5-min Rain = 0
KST2 141502Z 01009KT 02/M00 A3033 RMK A01 T00241001  RH  083%=      5-min Rain = 0
KST2 141503Z 01012KT 03/M00 A3034 RMK A01 T00251003  RH  082%=      5-min Rain = 0
KST2 141504Z 01009KT 02/M01 A3034 RMK A01 T00241005  RH  081%=      5-min Rain = 0
KST2 141505Z 01010KT 02/M00 A3034 RMK A01 T00241003  RH  082%=      5-min Rain = 0
KST2 141506Z 01011KT 03/M00 A3034 RMK A01 T00251004  RH  081%=      5-min Rain = 0
KST2 141507Z 01011KT 03/M00 A3034 RMK A01 T00261004  RH  081%=      5-min Rain = 0
KST2 141508Z 01012KT 03/M00 A3034 RMK A01 T00261004  RH  081%=      5-min Rain = 0
KST2 141509Z 01011KT 03/M01 A3034 RMK A01 T00271006  RH  079%=      5-min Rain = 0
KST2 141510Z 00012KT 03/M00 A3034 RMK A01 T00271004  RH  080%=      5-min Rain = 0
KST2 141511Z 01010KT 03/M01 A3034 RMK A01 T00281006  RH  078%=      5-min Rain = 0
KST2 141512Z 01009KT 03/M00 A3034 RMK A01 T00281004  RH  079%=      5-min Rain = 0
KST2 141513Z 01010KT 03/M00 A3034 RMK A01 T00301002  RH  080%=      5-min Rain = 0
KST2 141514Z 01010KT 03/M00 A3034 RMK A01 T00311002  RH  079%=      5-min Rain = 0
KST2 141515Z 02013KT 03/M01 A3034 RMK A01 T00311005  RH  077%=      5-min Rain = 0
KST2 141516Z 02013KT 03/M01 A3035 RMK A01 T00311006  RH  076%=      5-min Rain = 0
KST2 141517Z 02011KT 03/M01 A3035 RMK A01 T00311007  RH  076%=      5-min Rain = 0
KST2 141518Z 01010KT 03/M01 A3035 RMK A01 T00311006  RH  077%=      5-min Rain = 0
KST2 141519Z 01010KT 03/M00 A3035 RMK A01 T00331003  RH  077%=      5-min Rain = 0
KST2 141520Z 01011KT 03/M00 A3035 RMK A01 T00341002  RH  077%=      5-min Rain = 0
KST2 141521Z 01012KT 04/M00 A3035 RMK A01 T00351004  RH  076%=      5-min Rain = 0
KST2 141522Z 02010KT 04/M01 A3035 RMK A01 T00351005  RH  075%=      5-min Rain = 0
KST2 141523Z 02010KT 04/M00 A3035 RMK A01 T00351004  RH  076%=      5-min Rain = 0
KST2 141524Z 02009KT 04/M00 A3035 RMK A01 T00361002  RH  076%=      5-min Rain = 0
KST2 141525Z 01012KT 04/M00 A3035 RMK A01 T00371002  RH  076%=      5-min Rain = 0
KST2 141526Z 02012KT 04/M01 A3035 RMK A01 T00381006  RH  073%=      5-min Rain = 0
KST2 141527Z 02009KT 04/M01 A3035 RMK A01 T00371006  RH  073%=      5-min Rain = 0
KST2 141528Z 01010KT 04/M00 A3035 RMK A01 T00381004  RH  074%=      5-min Rain = 0
KST2 141529Z 02009KT 04/M01 A3035 RMK A01 T00391005  RH  073%=      5-min Rain = 0
KST2 141530Z 02011KT 04/M00 A3035 RMK A01 T00401002  RH  074%=      5-min Rain = 0
KST2 141531Z 02011KT 04/M00 A3035 RMK A01 T00411004  RH  073%=      5-min Rain = 0
KST2 141532Z 01010KT 04/M01 A3035 RMK A01 T00401008  RH  071%=      5-min Rain = 0
KST2 141533Z 01012KT 04/M01 A3035 RMK A01 T00401008  RH  071%=      5-min Rain = 0
KST2 141534Z 02014KT 04/M01 A3035 RMK A01 T00401010  RH  070%=      5-min Rain = 0
KST2 141535Z 02013KT 04/M01 A3035 RMK A01 T00401010  RH  070%=      5-min Rain = 0
KST2 141536Z 02011KT 04/M01 A3035 RMK A01 T00401008  RH  070%=      5-min Rain = 0
KST2 141537Z 02012KT 04/M01 A3036 RMK A01 T00421007  RH  071%=      5-min Rain = 0
KST2 141538Z 02012KT 04/M01 A3036 RMK A01 T00421009  RH  069%=      5-min Rain = 0
KST2 141539Z 02011KT 04/M01 A3036 RMK A01 T00421009  RH  069%=      5-min Rain = 0
KST2 141540Z 02012KT 04/M01 A3036 RMK A01 T00421008  RH  070%=      5-min Rain = 0
KST2 141541Z 02010KT 04/M01 A3036 RMK A01 T00431007  RH  070%=      5-min Rain = 0
KST2 141542Z 02012KT 05/M01 A3036 RMK A01 T00451006  RH  070%=      5-min Rain = 0
KST2 141543Z 02012KT 05/M01 A3036 RMK A01 T00451008  RH  069%=      5-min Rain = 0
KST2 141544Z 02012KT 05/M01 A3036 RMK A01 T00451008  RH  069%=      5-min Rain = 0
KST2 141545Z 02012KT 05/M01 A3036 RMK A01 T00461006  RH  069%=      5-min Rain = 0
KST2 141546Z 02013KT 05/M01 A3036 RMK A01 T00461007  RH  068%=      5-min Rain = 0
KST2 141547Z 02013KT 05/M01 A3036 RMK A01 T00471006  RH  068%=      5-min Rain = 0
KST2 141548Z 02014KT 05/M01 A3036 RMK A01 T00471008  RH  067%=      5-min Rain = 0
KST2 141549Z 03011KT 05/M01 A3036 RMK A01 T00481008  RH  067%=      5-min Rain = 0
KST2 141550Z 02011KT 05/M01 A3036 RMK A01 T00481008  RH  067%=      5-min Rain = 0
KST2 141551Z 01011KT 05/M01 A3036 RMK A01 T00481007  RH  067%=      5-min Rain = 0
KST2 141552Z 01011KT 05/M01 A3036 RMK A01 T00501006  RH  067%=      5-min Rain = 0
KST2 141553Z 02012KT 05/M01 A3036 RMK A01 T00501008  RH  066%=      5-min Rain = 0
KST2 141554Z 02012KT 05/M01 A3036 RMK A01 T00501008  RH  066%=      5-min Rain = 0
KST2 141555Z 03012KT 05/M01 A3036 RMK A01 T00501008  RH  066%=      5-min Rain = 0
KST2 141556Z 02011KT 05/M01 A3036 RMK A01 T00511008  RH  066%=      5-min Rain = 0
KST2 141557Z 02013KT 05/M01 A3036 RMK A01 T00521008  RH  066%=      5-min Rain = 0
KST2 141558Z 02014KT 05/M01 A3037 RMK A01 T00521009  RH  065%=      5-min Rain = 0
KST2 141559Z 02012KT 05/M01 A3037 RMK A01 T00521009  RH  064%=      5-min Rain = 0
KST2 141600Z 02010KT 05/M01 A3037 RMK A01 T00531008  RH  065%=      5-min Rain = 0
KST2 141601Z 03009KT 05/M00 A3037 RMK A01 T00541004  RH  066%=      5-min Rain = 0
KST2 141602Z 04008KT 06/M00 A3037 RMK A01 T00561003  RH  066%=      5-min Rain = 0
KST2 141603Z 03011KT 06/M00 A3037 RMK A01 T00581004  RH  064%=      5-min Rain = 0
KST2 141604Z 02011KT 06/M01 A3037 RMK A01 T00581006  RH  064%=      5-min Rain = 0
KST2 141605Z 02009KT 06/M01 A3037 RMK A01 T00581007  RH  063%=      5-min Rain = 0
KST2 141606Z 01010KT 06/M01 A3037 RMK A01 T00581006  RH  063%=      5-min Rain = 0
KST2 141607Z 03010KT 06/M00 A3037 RMK A01 T00581004  RH  064%=      5-min Rain = 0
KST2 141608Z 03010KT 06/M01 A3037 RMK A01 T00601005  RH  063%=      5-min Rain = 0
KST2 141609Z 03010KT 06/M00 A3037 RMK A01 T00611004  RH  063%=      5-min Rain = 0
KST2 141610Z 03012KT 06/M01 A3037 RMK A01 T00621006  RH  061%=      5-min Rain = 0
KST2 141611Z 03011KT 06/M01 A3037 RMK A01 T00621009  RH  060%=      5-min Rain = 0
KST2 141612Z 02012KT 06/M01 A3037 RMK A01 T00621008  RH  061%=      5-min Rain = 0
KST2 141613Z 03011KT 06/M01 A3037 RMK A01 T00631005  RH  062%=      5-min Rain = 0
KST2 141614Z 03011KT 06/M01 A3037 RMK A01 T00641007  RH  060%=      5-min Rain = 0
KST2 141615Z 02011KT 07/M01 A3037 RMK A01 T00651006  RH  061%=      5-min Rain = 0
KST2 141616Z 02014KT 07/M01 A3037 RMK A01 T00651008  RH  060%=      5-min Rain = 0
KST2 141617Z 03013KT 07/M01 A3037 RMK A01 T00651008  RH  059%=      5-min Rain = 0
KST2 141618Z 03012KT 07/M01 A3038 RMK A01 T00661007  RH  060%=      5-min Rain = 0
KST2 141619Z 03013KT 07/M01 A3038 RMK A01 T00661008  RH  059%=      5-min Rain = 0
KST2 141620Z 03011KT 07/M01 A3038 RMK A01 T00671008  RH  059%=      5-min Rain = 0
KST2 141621Z 02012KT 07/M01 A3038 RMK A01 T00681008  RH  059%=      5-min Rain = 0
KST2 141622Z 04011KT 07/M01 A3038 RMK A01 T00681009  RH  058%=      5-min Rain = 0
KST2 141623Z 03011KT 07/M01 A3038 RMK A01 T00681009  RH  058%=      5-min Rain = 0
KST2 141624Z 03012KT 07/M01 A3038 RMK A01 T00681009  RH  058%=      5-min Rain = 0
KST2 141625Z 02014KT 07/M01 A3038 RMK A01 T00681008  RH  058%=      5-min Rain = 0
KST2 141626Z 03012KT 07/M01 A3038 RMK A01 T00691011  RH  057%=      5-min Rain = 0
KST2 141627Z 04012KT 07/M01 A3038 RMK A01 T00681010  RH  057%=      5-min Rain = 0
KST2 141628Z 04013KT 07/M01 A3038 RMK A01 T00691009  RH  058%=      5-min Rain = 0
KST2 141629Z 03011KT 07/M01 A3038 RMK A01 T00691011  RH  057%=      5-min Rain = 0
KST2 141630Z 03011KT 07/M01 A3038 RMK A01 T00701008  RH  058%=      5-min Rain = 0
KST2 141631Z 04013KT 07/M01 A3038 RMK A01 T00711008  RH  057%=      5-min Rain = 0
KST2 141632Z 04014KT 07/M01 A3038 RMK A01 T00721009  RH  057%=      5-min Rain = 0
KST2 141633Z 03012G17KT 07/M01 A3038 RMK A01 T00721008  RH  057%=      5-min Rain = 0
KST2 141634Z 03011KT 07/M01 A3038 RMK A01 T00731007  RH  057%=      5-min Rain = 0
KST2 141635Z 03013KT 07/M01 A3038 RMK A01 T00741006  RH  057%=      5-min Rain = 0
KST2 141636Z 03013KT 08/M01 A3038 RMK A01 T00751006  RH  056%=      5-min Rain = 0
KST2 141637Z 03013KT 08/M01 A3038 RMK A01 T00761005  RH  057%=      5-min Rain = 0
KST2 141638Z 02014KT 08/M00 A3038 RMK A01 T00771004  RH  057%=      5-min Rain = 0
KST2 141639Z 02012KT 08/M01 A3038 RMK A01 T00771005  RH  056%=      5-min Rain = 0
KST2 141640Z 04014KT 08/M01 A3038 RMK A01 T00781006  RH  056%=      5-min Rain = 0
KST2 141641Z 03011KT 08/M01 A3038 RMK A01 T00781007  RH  055%=      5-min Rain = 0
KST2 141642Z 02014KT 08/M00 A3038 RMK A01 T00781002  RH  057%=      5-min Rain = 0
KST2 141643Z 02015KT 08/M00 A3038 RMK A01 T00801003  RH  056%=      5-min Rain = 0
KST2 141644Z 02012KT 08/M00 A3038 RMK A01 T00801004  RH  055%=      5-min Rain = 0
KST2 141645Z 03015KT 08/M00 A3038 RMK A01 T00801004  RH  056%=      5-min Rain = 0
KST2 141646Z 03014KT 08/M01 A3038 RMK A01 T00801006  RH  054%=      5-min Rain = 0
KST2 141647Z 03014KT 08/M01 A3038 RMK A01 T00791008  RH  054%=      5-min Rain = 0
KST2 141648Z 02014KT 08/M01 A3038 RMK A01 T00781006  RH  055%=      5-min Rain = 0
KST2 141649Z 03014KT 08/M01 A3038 RMK A01 T00791006  RH  055%=      5-min Rain = 0
KST2 141650Z 03012KT 08/M01 A3038 RMK A01 T00791005  RH  055%=      5-min Rain = 0
KST2 141651Z 02014KT 08/M00 A3039 RMK A01 T00801003  RH  056%=      5-min Rain = 0
KST2 141652Z 03013KT 08/M00 A3039 RMK A01 T00811003  RH  055%=      5-min Rain = 0
KST2 141653Z 04015KT 08/M00 A3039 RMK A01 T00821002  RH  056%=      5-min Rain = 0
KST2 141654Z 04014KT 08/M00 A3039 RMK A01 T00831003  RH  055%=      5-min Rain = 0
KST2 141655Z 04012KT 08/M01 A3039 RMK A01 T00821005  RH  054%=      5-min Rain = 0
KST2 141656Z 04012KT 08/M00 A3039 RMK A01 T00821003  RH  055%=      5-min Rain = 0
KST2 141657Z 03011KT 08/M00 A3039 RMK A01 T00821002  RH  055%=      5-min Rain = 0
KST2 141658Z 04012KT 09/00 A3039 RMK A01 T00850003  RH  056%=      5-min Rain = 0
KST2 141659Z 03010KT 09/M00 A3039 RMK A01 T00861002  RH  054%=      5-min Rain = 0
KST2 141700Z 03012KT 09/M00 A3039 RMK A01 T00851002  RH  054%=      5-min Rain = 0
KST2 141701Z 04011KT 09/00 A3039 RMK A01 T008600-0  RH  055%=      5-min Rain = 0
KST2 141702Z 03012KT 09/00 A3039 RMK A01 T00860000  RH  055%=      5-min Rain = 0
KST2 141703Z 03013KT 09/M00 A3039 RMK A01 T00871002  RH  054%=      5-min Rain = 0
KST2 141704Z 03011KT 09/M01 A3039 RMK A01 T00861005  RH  053%=      5-min Rain = 0
KST2 141705Z 03009KT 09/M00 A3039 RMK A01 T00851003  RH  054%=      5-min Rain = 0
KST2 141706Z 03010G15KT 09/00 A3039 RMK A01 T00860001  RH  055%=      5-min Rain = 0
KST2 141707Z 02014KT 09/00 A3039 RMK A01 T00890004  RH  055%=      5-min Rain = 0
KST2 141708Z 03013KT 09/M00 A3039 RMK A01 T00901001  RH  053%=      5-min Rain = 0
KST2 141709Z 03015KT 09/00 A3039 RMK A01 T00890000  RH  054%=      5-min Rain = 0
KST2 141710Z 04014KT 09/M00 A3039 RMK A01 T00901002  RH  053%=      5-min Rain = 0
KST2 141711Z 03014KT 09/M00 A3039 RMK A01 T00891001  RH  053%=      5-min Rain = 0
KST2 141712Z 04013KT 09/00 A3039 RMK A01 T00900001  RH  053%=      5-min Rain = 0
KST2 141713Z 04012KT 09/M00 A3039 RMK A01 T00911002  RH  052%=      5-min Rain = 0
KST2 141714Z 02012KT 09/00 A3039 RMK A01 T00900001  RH  053%=      5-min Rain = 0
KST2 141715Z 02012KT 09/00 A3039 RMK A01 T00910001  RH  054%=      5-min Rain = 0
KST2 141716Z 02013KT 09/00 A3039 RMK A01 T00920002  RH  053%=      5-min Rain = 0
KST2 141717Z 02014KT 09/00 A3039 RMK A01 T00920001  RH  053%=      5-min Rain = 0
KST2 141718Z 02012KT 09/M00 A3039 RMK A01 T00911001  RH  052%=      5-min Rain = 0
KST2 141719Z 01011KT 09/00 A3039 RMK A01 T00910000  RH  053%=      5-min Rain = 0
KST2 141720Z 02014KT 09/00 A3039 RMK A01 T00920001  RH  053%=      5-min Rain = 0
KST2 141721Z 03016KT 09/M00 A3039 RMK A01 T00931001  RH  052%=      5-min Rain = 0
KST2 141722Z 03015KT 09/M00 A3039 RMK A01 T00921001  RH  052%=      5-min Rain = 0
KST2 141723Z 02016KT 09/M00 A3039 RMK A01 T00931002  RH  052%=      5-min Rain = 0
KST2 141724Z 02014KT 09/M00 A3039 RMK A01 T00921002  RH  052%=      5-min Rain = 0
KST2 141725Z 02015KT 09/00 A3039 RMK A01 T009300-0  RH  052%=      5-min Rain = 0
KST2 141726Z 03013KT 09/M00 A3039 RMK A01 T00931002  RH  051%=      5-min Rain = 0
KST2 141727Z 02015KT 10/00 A3039 RMK A01 T00950001  RH  052%=      5-min Rain = 0
KST2 141728Z 02014KT 10/00 A3039 RMK A01 T009500-0  RH  051%=      5-min Rain = 0
KST2 141729Z 03014KT 10/00 A3039 RMK A01 T009600-0  RH  051%=      5-min Rain = 0
KST2 141730Z 03013KT 10/00 A3039 RMK A01 T00950000  RH  051%=      5-min Rain = 0
KST2 141731Z 04013KT 10/00 A3039 RMK A01 T00960000  RH  051%=      5-min Rain = 0
KST2 141732Z 03015KT 10/00 A3039 RMK A01 T009500-0  RH  051%=      5-min Rain = 0
KST2 141733Z 02014KT 10/00 A3039 RMK A01 T00960002  RH  052%=      5-min Rain = 0
KST2 141734Z 03015KT 10/00 A3039 RMK A01 T00980003  RH  052%=      5-min Rain = 0
KST2 141735Z 03012KT 10/00 A3039 RMK A01 T00980003  RH  052%=      5-min Rain = 0
KST2 141736Z 02011KT 10/00 A3039 RMK A01 T00990004  RH  052%=      5-min Rain = 0
KST2 141737Z 02012KT 10/01 A3039 RMK A01 T01000007  RH  052%=      5-min Rain = 0
KST2 141738Z 02013KT 10/01 A3039 RMK A01 T01020007  RH  052%=      5-min Rain = 0
KST2 141739Z 02013KT 10/01 A3039 RMK A01 T01030011  RH  053%=      5-min Rain = 0
KST2 141740Z 02012KT 11/01 A3039 RMK A01 T01050013  RH  053%=      5-min Rain = 0
KST2 141741Z 02014KT 11/01 A3039 RMK A01 T01070012  RH  052%=      5-min Rain = 0
KST2 141742Z 02015KT 11/01 A3039 RMK A01 T01050009  RH  051%=      5-min Rain = 0
KST2 141743Z 02014KT 10/01 A3039 RMK A01 T01040009  RH  052%=      5-min Rain = 0
KST2 141744Z 02014KT 10/01 A3039 RMK A01 T01040008  RH  052%=      5-min Rain = 0
KST2 141745Z 02014KT 10/01 A3039 RMK A01 T01030007  RH  051%=      5-min Rain = 0
KST2 141746Z 01011KT 10/01 A3039 RMK A01 T01020007  RH  052%=      5-min Rain = 0
KST2 141747Z 02014KT 10/01 A3038 RMK A01 T01010008  RH  052%=      5-min Rain = 0
KST2 141748Z 03015KT 10/01 A3039 RMK A01 T01020007  RH  052%=      5-min Rain = 0
KST2 141749Z 02011KT 10/01 A3038 RMK A01 T01010008  RH  052%=      5-min Rain = 0
KST2 141750Z 02012KT 10/01 A3038 RMK A01 T01030012  RH  053%=      5-min Rain = 0
KST2 141751Z 02011KT 10/01 A3038 RMK A01 T01040011  RH  053%=      5-min Rain = 0
KST2 141752Z 02013KT 11/01 A3038 RMK A01 T01050012  RH  052%=      5-min Rain = 0
KST2 141753Z 03013KT 11/01 A3038 RMK A01 T01050010  RH  052%=      5-min Rain = 0
KST2 141754Z 02013KT 10/01 A3038 RMK A01 T01040010  RH  052%=      5-min Rain = 0
KST2 141755Z 03012KT 10/01 A3038 RMK A01 T01030009  RH  052%=      5-min Rain = 0
KST2 141756Z 03012KT 10/01 A3038 RMK A01 T01030011  RH  053%=      5-min Rain = 0
KST2 141757Z 05012KT 11/01 A3038 RMK A01 T01050012  RH  053%=      5-min Rain = 0
KST2 141758Z 02014KT 11/01 A3038 RMK A01 T01050012  RH  053%=      5-min Rain = 0
KST2 141759Z 05016KT 11/01 A3038 RMK A01 T01060012  RH  052%=      5-min Rain = 0
KST2 141800Z 05016KT 11/01 A3038 RMK A01 T01060011  RH  052%=      5-min Rain = 0
KST2 141801Z 05013KT 11/01 A3038 RMK A01 T01050011  RH  052%=      5-min Rain = 0
KST2 141802Z 05012KT 11/01 A3038 RMK A01 T01060014  RH  053%=      5-min Rain = 0
KST2 141803Z 04011KT 11/01 A3038 RMK A01 T01070014  RH  052%=      5-min Rain = 0
KST2 141804Z 05014G20KT 11/01 A3038 RMK A01 T01080014  RH  052%=      5-min Rain = 0
KST2 141805Z 05013KT 11/02 A3038 RMK A01 T01080017  RH  053%=      5-min Rain = 0
KST2 141806Z 05012KT 11/02 A3038 RMK A01 T01090017  RH  053%=      5-min Rain = 0
KST2 141807Z 05012KT 11/01 A3038 RMK A01 T01100014  RH  052%=      5-min Rain = 0
KST2 141808Z 05011KT 11/01 A3038 RMK A01 T01070010  RH  051%=      5-min Rain = 0
KST2 141809Z 05012KT 11/01 A3038 RMK A01 T01060012  RH  052%=      5-min Rain = 0
KST2 141810Z 05011KT 11/01 A3038 RMK A01 T01060014  RH  053%=      5-min Rain = 0
KST2 141811Z 05015KT 11/02 A3038 RMK A01 T01080016  RH  053%=      5-min Rain = 0
KST2 141812Z 03009KT 11/02 A3038 RMK A01 T01090015  RH  052%=      5-min Rain = 0
KST2 141813Z 03014KT 11/02 A3038 RMK A01 T01090016  RH  053%=      5-min Rain = 0
KST2 141814Z 05013KT 11/01 A3038 RMK A01 T01100014  RH  052%=      5-min Rain = 0
KST2 141815Z 04011KT 11/01 A3038 RMK A01 T01090012  RH  051%=      5-min Rain = 0
KST2 141816Z 05009KT 11/01 A3038 RMK A01 T01080012  RH  051%=      5-min Rain = 0
KST2 141817Z 02011KT 11/01 A3038 RMK A01 T01080013  RH  052%=      5-min Rain = 0
KST2 141818Z 02015KT 11/02 A3038 RMK A01 T01090015  RH  052%=      5-min Rain = 0
KST2 141819Z 02012KT 11/01 A3038 RMK A01 T01100012  RH  051%=      5-min Rain = 0
KST2 141820Z 03012KT 11/01 A3038 RMK A01 T01090014  RH  052%=      5-min Rain = 0
KST2 141821Z 04014KT 11/01 A3038 RMK A01 T01100014  RH  052%=      5-min Rain = 0
KST2 141822Z 02013KT 11/01 A3038 RMK A01 T01100013  RH  051%=      5-min Rain = 0
KST2 141823Z 02014KT 11/01 A3038 RMK A01 T01100013  RH  051%=      5-min Rain = 0
KST2 141824Z 01014KT 11/01 A3037 RMK A01 T01100013  RH  051%=      5-min Rain = 0
KST2 141825Z 02014KT 11/01 A3037 RMK A01 T01100012  RH  051%=      5-min Rain = 0
KST2 141826Z 02013KT 11/01 A3037 RMK A01 T01100012  RH  051%=      5-min Rain = 0
KST2 141827Z 03012KT 11/01 A3037 RMK A01 T01100012  RH  051%=      5-min Rain = 0
KST2 141828Z 02012KT 11/01 A3037 RMK A01 T01100012  RH  051%=      5-min Rain = 0
KST2 141829Z 02015KT 11/01 A3037 RMK A01 T01120014  RH  051%=      5-min Rain = 0
KST2 141830Z 03012KT 11/01 A3037 RMK A01 T01120011  RH  050%=      5-min Rain = 0
KST2 141831Z 03011G16KT 11/01 A3037 RMK A01 T01110013  RH  051%=      5-min Rain = 0
KST2 141832Z 02015KT 11/02 A3037 RMK A01 T01120015  RH  051%=      5-min Rain = 0
KST2 141833Z 02014KT 11/01 A3037 RMK A01 T01130013  RH  050%=      5-min Rain = 0
KST2 141834Z 02013KT 12/02 A3037 RMK A01 T01150015  RH  050%=      5-min Rain = 0
KST2 141835Z 03014KT 12/02 A3037 RMK A01 T01170015  RH  050%=      5-min Rain = 0
KST2 141836Z 03015KT 12/01 A3037 RMK A01 T01150012  RH  049%=      5-min Rain = 0
KST2 141837Z 02013KT 11/01 A3037 RMK A01 T01140012  RH  049%=      5-min Rain = 0
KST2 141838Z 03014KT 11/01 A3037 RMK A01 T01140011  RH  049%=      5-min Rain = 0
KST2 141839Z 03012KT 11/01 A3037 RMK A01 T01130009  RH  049%=      5-min Rain = 0
KST2 141840Z 03014KT 11/01 A3037 RMK A01 T01130012  RH  050%=      5-min Rain = 0
KST2 141841Z 02012KT 11/01 A3037 RMK A01 T01140012  RH  049%=      5-min Rain = 0
KST2 141842Z 03014KT 12/01 A3037 RMK A01 T01150012  RH  049%=      5-min Rain = 0
KST2 141843Z 05013KT 12/01 A3037 RMK A01 T01170014  RH  049%=      5-min Rain = 0
KST2 141844Z 05014KT 12/01 A3037 RMK A01 T01170012  RH  048%=      5-min Rain = 0
KST2 141845Z 03013KT 12/01 A3037 RMK A01 T01160010  RH  048%=      5-min Rain = 0
KST2 141846Z 02016KT 12/01 A3037 RMK A01 T01150012  RH  049%=      5-min Rain = 0
KST2 141847Z 02015KT 12/01 A3037 RMK A01 T01170012  RH  049%=      5-min Rain = 0
KST2 141848Z 02015KT 12/01 A3037 RMK A01 T01170010  RH  048%=      5-min Rain = 0
KST2 141849Z 03012G17KT 12/01 A3037 RMK A01 T01160008  RH  047%=      5-min Rain = 0
KST2 141850Z 02017KT 12/01 A3037 RMK A01 T01150008  RH  048%=      5-min Rain = 0
KST2 141851Z 02014KT 12/01 A3037 RMK A01 T01150009  RH  048%=      5-min Rain = 0
KST2 141852Z 03015KT 12/01 A3037 RMK A01 T01150010  RH  049%=      5-min Rain = 0
KST2 141853Z 02015KT 12/01 A3037 RMK A01 T01160010  RH  048%=      5-min Rain = 0
KST2 141854Z 03009KT 12/01 A3036 RMK A01 T01160009  RH  048%=      5-min Rain = 0
KST2 141855Z 01012KT 12/01 A3036 RMK A01 T01170010  RH  048%=      5-min Rain = 0
KST2 141856Z 03018G26KT 12/01 A3036 RMK A01 T01190013  RH  048%=      5-min Rain = 0
KST2 141857Z 04015KT 12/01 A3036 RMK A01 T01210014  RH  048%=      5-min Rain = 0
KST2 141858Z 03018KT 12/01 A3036 RMK A01 T01220011  RH  047%=      5-min Rain = 0
KST2 141859Z 04015KT 12/01 A3036 RMK A01 T01210008  RH  046%=      5-min Rain = 0
KST2 141900Z 03016KT 12/01 A3036 RMK A01 T01200009  RH  046%=      5-min Rain = 0
KST2 141901Z 03015G21KT 12/01 A3036 RMK A01 T01200007  RH  046%=      5-min Rain = 0
KST2 141902Z 05016KT 12/01 A3036 RMK A01 T01200008  RH  046%=      5-min Rain = 0
KST2 141903Z 04014KT 12/01 A3036 RMK A01 T01200008  RH  046%=      5-min Rain = 0
KST2 141904Z 03015KT 12/01 A3036 RMK A01 T01200011  RH  047%=      5-min Rain = 0
KST2 141905Z 03015KT 12/01 A3036 RMK A01 T01210009  RH  046%=      5-min Rain = 0
KST2 141906Z 02014KT 12/01 A3036 RMK A01 T01210008  RH  046%=      5-min Rain = 0
KST2 141907Z 02016KT 12/01 A3036 RMK A01 T01200010  RH  047%=      5-min Rain = 0
KST2 141908Z 03014KT 12/01 A3036 RMK A01 T01210010  RH  046%=      5-min Rain = 0
KST2 141909Z 04012KT 12/01 A3036 RMK A01 T01220013  RH  047%=      5-min Rain = 0
KST2 141910Z 04013KT 12/01 A3036 RMK A01 T01230009  RH  045%=      5-min Rain = 0
KST2 141911Z 05013KT 12/00 A3036 RMK A01 T01210004  RH  045%=      5-min Rain = 0
KST2 141912Z 04012KT 12/00 A3036 RMK A01 T01190003  RH  045%=      5-min Rain = 0
KST2 141913Z 05011KT 12/01 A3036 RMK A01 T01180007  RH  046%=      5-min Rain = 0
KST2 141914Z 05011KT 12/01 A3036 RMK A01 T01190007  RH  046%=      5-min Rain = 0
KST2 141915Z 04012KT 12/01 A3036 RMK A01 T01190006  RH  046%=      5-min Rain = 0
KST2 141916Z 04011KT 12/01 A3036 RMK A01 T01180007  RH  046%=      5-min Rain = 0
KST2 141917Z 03012KT 12/01 A3036 RMK A01 T01190007  RH  046%=      5-min Rain = 0
KST2 141918Z 01012KT 12/01 A3035 RMK A01 T01200009  RH  047%=      5-min Rain = 0
KST2 141919Z 01012KT 12/01 A3035 RMK A01 T01210009  RH  046%=      5-min Rain = 0
KST2 141920Z 02013KT 12/01 A3035 RMK A01 T01220011  RH  047%=      5-min Rain = 0
KST2 141921Z 03015KT 12/01 A3035 RMK A01 T01240013  RH  047%=      5-min Rain = 0
KST2 141922Z 03015KT 12/01 A3035 RMK A01 T01240011  RH  046%=      5-min Rain = 0
KST2 141923Z 03015KT 12/01 A3035 RMK A01 T01240009  RH  045%=      5-min Rain = 0
KST2 141924Z 03014KT 12/01 A3035 RMK A01 T01220008  RH  046%=      5-min Rain = 0
KST2 141925Z 03015KT 12/01 A3035 RMK A01 T01220009  RH  046%=      5-min Rain = 0
KST2 141926Z 02014KT 12/01 A3035 RMK A01 T01220009  RH  046%=      5-min Rain = 0
KST2 141927Z 03014KT 12/01 A3035 RMK A01 T01220011  RH  047%=      5-min Rain = 0
KST2 141928Z 02013KT 12/01 A3035 RMK A01 T01220010  RH  046%=      5-min Rain = 0
KST2 141929Z 02011KT 12/01 A3035 RMK A01 T01230009  RH  046%=      5-min Rain = 0
KST2 141930Z 02013KT 12/01 A3035 RMK A01 T01220010  RH  046%=      5-min Rain = 0
KST2 141931Z 02016KT 12/01 A3035 RMK A01 T01220009  RH  046%=      5-min Rain = 0
KST2 141932Z 03013KT 12/01 A3035 RMK A01 T01230009  RH  046%=      5-min Rain = 0
KST2 141933Z 03012KT 12/01 A3035 RMK A01 T01230009  RH  046%=      5-min Rain = 0
KST2 141934Z 04015KT 12/01 A3035 RMK A01 T01240012  RH  046%=      5-min Rain = 0
KST2 141935Z 03015KT 13/01 A3035 RMK A01 T01250009  RH  045%=      5-min Rain = 0
KST2 141936Z 02012KT 12/01 A3035 RMK A01 T01240007  RH  045%=      5-min Rain = 0
KST2 141937Z 02015KT 12/01 A3035 RMK A01 T01230009  RH  045%=      5-min Rain = 0
KST2 141938Z 02017KT 12/01 A3035 RMK A01 T01240010  RH  046%=      5-min Rain = 0
KST2 141939Z 03014KT 12/01 A3035 RMK A01 T01240009  RH  045%=      5-min Rain = 0
KST2 141940Z 03014KT 12/01 A3035 RMK A01 T01240008  RH  045%=      5-min Rain = 0
KST2 141941Z 02014KT 12/01 A3035 RMK A01 T01240008  RH  045%=      5-min Rain = 0
KST2 141942Z 02012KT 12/01 A3035 RMK A01 T01230008  RH  045%=      5-min Rain = 0
KST2 141943Z 02013KT 12/01 A3035 RMK A01 T01240011  RH  046%=      5-min Rain = 0
KST2 141944Z 03015KT 13/01 A3035 RMK A01 T01260011  RH  045%=      5-min Rain = 0
KST2 141945Z 03014KT 13/01 A3034 RMK A01 T01260010  RH  045%=      5-min Rain = 0
KST2 141946Z 04015KT 13/01 A3034 RMK A01 T01260011  RH  045%=      5-min Rain = 0
KST2 141947Z 04013KT 13/01 A3034 RMK A01 T01260008  RH  045%=      5-min Rain = 0
KST2 141948Z 03010KT 13/01 A3034 RMK A01 T01250009  RH  045%=      5-min Rain = 0
KST2 141949Z 03011KT 13/01 A3034 RMK A01 T01250008  RH  045%=      5-min Rain = 0
KST2 141950Z 03013KT 13/01 A3034 RMK A01 T01260011  RH  045%=      5-min Rain = 0
KST2 141951Z 02012KT 13/01 A3034 RMK A01 T01270011  RH  045%=      5-min Rain = 0
KST2 141952Z 03016KT 13/01 A3034 RMK A01 T01280009  RH  044%=      5-min Rain = 0
KST2 141953Z 02016KT 13/01 A3034 RMK A01 T01270007  RH  044%=      5-min Rain = 0
KST2 141954Z 03018KT 13/01 A3034 RMK A01 T01270006  RH  043%=      5-min Rain = 0
KST2 141955Z 02016KT 13/01 A3034 RMK A01 T01270008  RH  044%=      5-min Rain = 0
KST2 141956Z 02015KT 13/01 A3034 RMK A01 T01270006  RH  044%=      5-min Rain = 0
KST2 141957Z 02018KT 13/01 A3034 RMK A01 T01270008  RH  044%=      5-min Rain = 0
KST2 141958Z 02017KT 13/01 A3034 RMK A01 T01270007  RH  044%=      5-min Rain = 0
KST2 141959Z 03017KT 13/01 A3034 RMK A01 T01270007  RH  044%=      5-min Rain = 0
KST2 142000Z 02016KT 13/01 A3034 RMK A01 T01270006  RH  043%=      5-min Rain = 0
KST2 142001Z 03013KT 13/01 A3034 RMK A01 T01270007  RH  044%=      5-min Rain = 0
KST2 142002Z 02015KT 13/01 A3034 RMK A01 T01280007  RH  044%=      5-min Rain = 0
KST2 142003Z 03015KT 13/01 A3034 RMK A01 T01290009  RH  044%=      5-min Rain = 0
KST2 142004Z 02015KT 13/01 A3034 RMK A01 T01300007  RH  043%=      5-min Rain = 0
KST2 142005Z 01015KT 13/01 A3034 RMK A01 T01290006  RH  043%=      5-min Rain = 0
KST2 142006Z 03017KT 13/01 A3034 RMK A01 T01280006  RH  043%=      5-min Rain = 0
KST2 142007Z 02017KT 13/01 A3034 RMK A01 T01290008  RH  044%=      5-min Rain = 0
KST2 142008Z 02017KT 13/01 A3034 RMK A01 T01300007  RH  043%=      5-min Rain = 0
KST2 142009Z 03019KT 13/01 A3034 RMK A01 T01290005  RH  043%=      5-min Rain = 0
KST2 142010Z 02017KT 13/01 A3034 RMK A01 T01280005  RH  043%=      5-min Rain = 0
KST2 142011Z 03017KT 13/01 A3034 RMK A01 T01280005  RH  043%=      5-min Rain = 0
KST2 142012Z 03016KT 13/01 A3034 RMK A01 T01280005  RH  043%=      5-min Rain = 0
KST2 142013Z 03018KT 13/00 A3034 RMK A01 T01280004  RH  043%=      5-min Rain = 0
KST2 142014Z 03017KT 13/00 A3034 RMK A01 T01280004  RH  043%=      5-min Rain = 0
KST2 142015Z 03016KT 13/00 A3034 RMK A01 T01280004  RH  042%=      5-min Rain = 0
KST2 142016Z 03014KT 13/00 A3034 RMK A01 T01280004  RH  043%=      5-min Rain = 0
KST2 142017Z 03016KT 13/01 A3034 RMK A01 T01280005  RH  043%=      5-min Rain = 0
KST2 142018Z 02016KT 13/01 A3034 RMK A01 T01290006  RH  043%=      5-min Rain = 0
KST2 142019Z 03017KT 13/01 A3034 RMK A01 T01290006  RH  043%=      5-min Rain = 0
KST2 142020Z 02017KT 13/01 A3034 RMK A01 T01290005  RH  043%=      5-min Rain = 0
KST2 142021Z 02018KT 13/01 A3034 RMK A01 T01280006  RH  043%=      5-min Rain = 0
KST2 142022Z 02017KT 13/01 A3034 RMK A01 T01280006  RH  043%=      5-min Rain = 0
KST2 142023Z 03015G20KT 13/01 A3034 RMK A01 T01280005  RH  043%=      5-min Rain = 0
KST2 142024Z 02016KT 13/01 A3034 RMK A01 T01280006  RH  043%=      5-min Rain = 0
KST2 142025Z 02014KT 13/01 A3034 RMK A01 T01290006  RH  043%=      5-min Rain = 0
KST2 142026Z 03015KT 13/01 A3034 RMK A01 T01290008  RH  043%=      5-min Rain = 0
KST2 142027Z 03016KT 13/01 A3034 RMK A01 T01300006  RH  043%=      5-min Rain = 0
KST2 142028Z 02016KT 13/00 A3034 RMK A01 T01290004  RH  043%=      5-min Rain = 0
KST2 142029Z 03016KT 13/01 A3034 RMK A01 T01280006  RH  043%=      5-min Rain = 0
KST2 142030Z 03015KT 13/00 A3034 RMK A01 T01280004  RH  043%=      5-min Rain = 0
KST2 142031Z 03013KT 13/00 A3034 RMK A01 T01280003  RH  042%=      5-min Rain = 0
KST2 142032Z 02013KT 13/01 A3034 RMK A01 T01270005  RH  043%=      5-min Rain = 0
KST2 142033Z 02014KT 13/01 A3034 RMK A01 T01280007  RH  043%=      5-min Rain = 0
KST2 142034Z 03017KT 13/01 A3034 RMK A01 T01280007  RH  043%=      5-min Rain = 0
KST2 142035Z 04012KT 13/01 A3034 RMK A01 T01290006  RH  043%=      5-min Rain = 0
KST2 142036Z 04013KT 13/01 A3034 RMK A01 T01280007  RH  043%=      5-min Rain = 0
KST2 142037Z 04012KT 13/01 A3034 RMK A01 T01280006  RH  043%=      5-min Rain = 0
KST2 142038Z 04014KT 13/01 A3034 RMK A01 T01290007  RH  043%=      5-min Rain = 0
KST2 142039Z 03013KT 13/01 A3034 RMK A01 T01290007  RH  043%=      5-min Rain = 0
KST2 142040Z 04015KT 13/01 A3034 RMK A01 T01290009  RH  044%=      5-min Rain = 0
KST2 142041Z 04016KT 13/01 A3034 RMK A01 T01300006  RH  043%=      5-min Rain = 0
KST2 142042Z 03014KT 13/01 A3034 RMK A01 T01290006  RH  043%=      5-min Rain = 0
KST2 142043Z 01017KT 13/01 A3034 RMK A01 T01300008  RH  043%=      5-min Rain = 0
KST2 142044Z 02015KT 13/01 A3034 RMK A01 T01300007  RH  043%=      5-min Rain = 0
KST2 142045Z 02014KT 13/01 A3034 RMK A01 T01290006  RH  043%=      5-min Rain = 0
KST2 142046Z 02012KT 13/01 A3034 RMK A01 T01290006  RH  043%=      5-min Rain = 0
KST2 142047Z 02014KT 13/01 A3034 RMK A01 T01290008  RH  043%=      5-min Rain = 0
KST2 142048Z 03014KT 13/01 A3034 RMK A01 T01290006  RH  043%=      5-min Rain = 0
KST2 142049Z 03016KT 13/01 A3034 RMK A01 T01290007  RH  043%=      5-min Rain = 0
KST2 142050Z 04015KT 13/01 A3034 RMK A01 T01290007  RH  043%=      5-min Rain = 0
KST2 142051Z 03013KT 13/01 A3034 RMK A01 T01290005  RH  043%=      5-min Rain = 0
KST2 142052Z 02014KT 13/01 A3034 RMK A01 T01280007  RH  044%=      5-min Rain = 0
KST2 142053Z 02013KT 13/00 A3034 RMK A01 T01280004  RH  043%=      5-min Rain = 0
KST2 142054Z 03015KT 13/00 A3034 RMK A01 T01260004  RH  043%=      5-min Rain = 0
KST2 142055Z 03013KT 13/01 A3034 RMK A01 T01260005  RH  043%=      5-min Rain = 0
KST2 142056Z 03012KT 13/01 A3034 RMK A01 T01270006  RH  044%=      5-min Rain = 0
KST2 142057Z 04014KT 13/01 A3034 RMK A01 T01280007  RH  044%=      5-min Rain = 0
KST2 142058Z 04013KT 13/01 A3034 RMK A01 T01280006  RH  043%=      5-min Rain = 0
KST2 142059Z 04013KT 13/01 A3034 RMK A01 T01280006  RH  043%=      5-min Rain = 0
KST2 142100Z 02012KT 13/01 A3034 RMK A01 T01280007  RH  044%=      5-min Rain = 0
KST2 142101Z 02010KT 13/01 A3034 RMK A01 T01280007  RH  044%=      5-min Rain = 0
KST2 142102Z 03015KT 13/01 A3034 RMK A01 T01290009  RH  044%=      5-min Rain = 0
KST2 142103Z 02013KT 13/01 A3034 RMK A01 T01290007  RH  043%=      5-min Rain = 0
KST2 142104Z 02014KT 13/01 A3034 RMK A01 T01290007  RH  043%=      5-min Rain = 0
KST2 142105Z 02013KT 13/01 A3034 RMK A01 T01290007  RH  043%=      5-min Rain = 0
KST2 142106Z 03014KT 13/01 A3034 RMK A01 T01280008  RH  044%=      5-min Rain = 0
KST2 142107Z 03013KT 13/01 A3034 RMK A01 T01290008  RH  043%=      5-min Rain = 0
KST2 142108Z 04012KT 13/01 A3034 RMK A01 T01290006  RH  043%=      5-min Rain = 0
KST2 142109Z 03015KT 13/01 A3034 RMK A01 T01280006  RH  043%=      5-min Rain = 0
KST2 142110Z 03014KT 13/01 A3034 RMK A01 T01280006  RH  043%=      5-min Rain = 0
KST2 142111Z 03015KT 13/01 A3035 RMK A01 T01280006  RH  043%=      5-min Rain = 0
KST2 142112Z 03012KT 13/01 A3035 RMK A01 T01270006  RH  043%=      5-min Rain = 0
KST2 142113Z 02012KT 13/01 A3034 RMK A01 T01270007  RH  044%=      5-min Rain = 0
KST2 142114Z 01010KT 13/01 A3034 RMK A01 T01270006  RH  043%=      5-min Rain = 0
KST2 142115Z 02011KT 13/01 A3034 RMK A01 T01270007  RH  044%=      5-min Rain = 0
KST2 142116Z 01012KT 13/01 A3034 RMK A01 T01280008  RH  044%=      5-min Rain = 0
KST2 142117Z 02011KT 13/01 A3034 RMK A01 T01280009  RH  044%=      5-min Rain = 0
KST2 142118Z 01012KT 13/01 A3034 RMK A01 T01280008  RH  044%=      5-min Rain = 0
KST2 142119Z 01014KT 13/01 A3034 RMK A01 T01290007  RH  043%=      5-min Rain = 0
KST2 142120Z 02016KT 13/01 A3034 RMK A01 T01280008  RH  044%=      5-min Rain = 0
KST2 142121Z 02015KT 13/01 A3034 RMK A01 T01280007  RH  043%=      5-min Rain = 0
KST2 142122Z 03015KT 13/01 A3034 RMK A01 T01280006  RH  043%=      5-min Rain = 0
KST2 142123Z 03013KT 13/01 A3034 RMK A01 T01270005  RH  043%=      5-min Rain = 0
KST2 142124Z 03013KT 13/01 A3034 RMK A01 T01260005  RH  043%=      5-min Rain = 0
KST2 142125Z 03015KT 13/00 A3034 RMK A01 T01260004  RH  043%=      5-min Rain = 0
KST2 142126Z 03014KT 13/01 A3034 RMK A01 T01260005  RH  044%=      5-min Rain = 0
KST2 142127Z 04013KT 13/00 A3034 RMK A01 T01260004  RH  043%=      5-min Rain = 0
KST2 142128Z 04011KT 13/00 A3034 RMK A01 T01250004  RH  043%=      5-min Rain = 0
KST2 142129Z 04011KT 13/00 A3034 RMK A01 T01250003  RH  043%=      5-min Rain = 0
KST2 142130Z 03012KT 12/01 A3034 RMK A01 T01240005  RH  044%=      5-min Rain = 0
KST2 142131Z 04009KT 13/01 A3034 RMK A01 T01250006  RH  044%=      5-min Rain = 0
KST2 142132Z 03011KT 13/01 A3034 RMK A01 T01260006  RH  044%=      5-min Rain = 0
KST2 142133Z 01014KT 13/01 A3034 RMK A01 T01260007  RH  044%=      5-min Rain = 0
KST2 142134Z 02012KT 13/01 A3034 RMK A01 T01270005  RH  043%=      5-min Rain = 0
KST2 142135Z 02011KT 13/01 A3034 RMK A01 T01260005  RH  044%=      5-min Rain = 0
KST2 142136Z 02013KT 13/01 A3034 RMK A01 T01260010  RH  045%=      5-min Rain = 0
KST2 142137Z 02016KT 13/01 A3034 RMK A01 T01280007  RH  044%=      5-min Rain = 0
KST2 142138Z 03014KT 13/01 A3034 RMK A01 T01270005  RH  043%=      5-min Rain = 0
KST2 142139Z 04014G20KT 13/01 A3034 RMK A01 T01260005  RH  044%=      5-min Rain = 0
KST2 142140Z 03015KT 13/00 A3034 RMK A01 T01250004  RH  044%=      5-min Rain = 0
KST2 142141Z 04011KT 13/00 A3034 RMK A01 T01250003  RH  043%=      5-min Rain = 0
KST2 142142Z 02010KT 12/00 A3034 RMK A01 T01240002  RH  043%=      5-min Rain = 0
KST2 142143Z 02009KT 12/00 A3034 RMK A01 T01240004  RH  044%=      5-min Rain = 0
KST2 142144Z 03010KT 12/01 A3034 RMK A01 T01240005  RH  044%=      5-min Rain = 0
KST2 142145Z 03010KT 13/01 A3034 RMK A01 T01250005  RH  044%=      5-min Rain = 0
KST2 142146Z 02014G20KT 13/01 A3034 RMK A01 T01260007  RH  044%=      5-min Rain = 0
KST2 142147Z 02016KT 13/01 A3034 RMK A01 T01260005  RH  044%=      5-min Rain = 0
KST2 142148Z 02014KT 13/00 A3034 RMK A01 T01260004  RH  043%=      5-min Rain = 0
KST2 142149Z 02013KT 13/00 A3034 RMK A01 T01250004  RH  043%=      5-min Rain = 0
KST2 142150Z 04013KT 12/00 A3034 RMK A01 T01240004  RH  044%=      5-min Rain = 0
KST2 142151Z 04014KT 13/00 A3034 RMK A01 T01250004  RH  044%=      5-min Rain = 0
KST2 142152Z 03015KT 13/00 A3034 RMK A01 T01250004  RH  043%=      5-min Rain = 0
KST2 142153Z 03015KT 13/01 A3034 RMK A01 T01250005  RH  044%=      5-min Rain = 0
KST2 142154Z 04015KT 13/01 A3034 RMK A01 T01250005  RH  044%=      5-min Rain = 0
KST2 142155Z 03013KT 13/01 A3034 RMK A01 T01250006  RH  044%=      5-min Rain = 0
KST2 142156Z 04013KT 13/01 A3034 RMK A01 T01250006  RH  044%=      5-min Rain = 0
KST2 142157Z 04014KT 12/01 A3034 RMK A01 T01240005  RH  044%=      5-min Rain = 0
KST2 142158Z 04012KT 12/01 A3034 RMK A01 T01240005  RH  044%=      5-min Rain = 0
KST2 142159Z 03015KT 12/00 A3034 RMK A01 T01240004  RH  044%=      5-min Rain = 0
KST2 142200Z 03012KT 12/00 A3034 RMK A01 T01240003  RH  044%=      5-min Rain = 0
KST2 142201Z 03010KT 12/00 A3034 RMK A01 T01230004  RH  044%=      5-min Rain = 0
KST2 142202Z 03011KT 12/01 A3034 RMK A01 T01230005  RH  044%=      5-min Rain = 0
KST2 142203Z 03015KT 12/01 A3034 RMK A01 T01240005  RH  044%=      5-min Rain = 0
KST2 142204Z 02012KT 12/01 A3034 RMK A01 T01240006  RH  044%=      5-min Rain = 0
KST2 142205Z 03013KT 12/01 A3034 RMK A01 T01240005  RH  044%=      5-min Rain = 0
KST2 142206Z 03015KT 13/01 A3035 RMK A01 T01250006  RH  044%=      5-min Rain = 0
KST2 142207Z 03015KT 12/00 A3035 RMK A01 T01240003  RH  044%=      5-min Rain = 0
KST2 142208Z 02014KT 12/00 A3035 RMK A01 T01230004  RH  044%=      5-min Rain = 0
KST2 142209Z 03012KT 12/00 A3035 RMK A01 T01230004  RH  044%=      5-min Rain = 0
KST2 142210Z 04012KT 12/00 A3035 RMK A01 T01230003  RH  044%=      5-min Rain = 0
KST2 142211Z 03010KT 12/00 A3034 RMK A01 T01220003  RH  044%=      5-min Rain = 0
KST2 142212Z 03011KT 12/00 A3035 RMK A01 T01220004  RH  044%=      5-min Rain = 0
KST2 142213Z 03010KT 12/01 A3035 RMK A01 T01230005  RH  045%=      5-min Rain = 0
KST2 142214Z 02011KT 12/01 A3035 RMK A01 T01240005  RH  044%=      5-min Rain = 0
KST2 142215Z 03009KT 12/01 A3035 RMK A01 T01230006  RH  044%=      5-min Rain = 0
KST2 142216Z 03010KT 12/01 A3035 RMK A01 T01240006  RH  044%=      5-min Rain = 0
KST2 142217Z 02012KT 12/01 A3035 RMK A01 T01240007  RH  045%=      5-min Rain = 0
KST2 142218Z 03012KT 12/01 A3035 RMK A01 T01240005  RH  044%=      5-min Rain = 0
KST2 142219Z 02012KT 12/00 A3035 RMK A01 T01230004  RH  044%=      5-min Rain = 0
KST2 142220Z 02012KT 12/00 A3035 RMK A01 T01230004  RH  044%=      5-min Rain = 0
KST2 142221Z 03011KT 12/00 A3035 RMK A01 T01230004  RH  044%=      5-min Rain = 0
KST2 142222Z 03010KT 12/01 A3035 RMK A01 T01220005  RH  045%=      5-min Rain = 0
KST2 142223Z 02011KT 12/01 A3035 RMK A01 T01220005  RH  044%=      5-min Rain = 0
KST2 142224Z 03010KT 12/00 A3035 RMK A01 T01220003  RH  044%=      5-min Rain = 0
KST2 142225Z 03010KT 12/00 A3035 RMK A01 T01220003  RH  044%=      5-min Rain = 0
KST2 142226Z 03010KT 12/00 A3035 RMK A01 T01220004  RH  044%=      5-min Rain = 0
KST2 142227Z 04011KT 12/00 A3035 RMK A01 T01220004  RH  044%=      5-min Rain = 0
KST2 142228Z 04009KT 12/01 A3035 RMK A01 T01220005  RH  045%=      5-min Rain = 0
KST2 142229Z 04013KT 12/01 A3035 RMK A01 T01220005  RH  045%=      5-min Rain = 0
KST2 142230Z 04013KT 12/00 A3035 RMK A01 T01220004  RH  045%=      5-min Rain = 0
KST2 142231Z 04012KT 12/01 A3035 RMK A01 T01210005  RH  045%=      5-min Rain = 0
KST2 142232Z 04012KT 12/01 A3035 RMK A01 T01210005  RH  045%=      5-min Rain = 0
KST2 142233Z 04013KT 12/01 A3035 RMK A01 T01210005  RH  045%=      5-min Rain = 0
KST2 142234Z 03011KT 12/00 A3035 RMK A01 T01210004  RH  045%=      5-min Rain = 0
KST2 142235Z 03011KT 12/00 A3035 RMK A01 T01200004  RH  045%=      5-min Rain = 0
KST2 142236Z 03011KT 12/01 A3035 RMK A01 T01200005  RH  045%=      5-min Rain = 0
KST2 142237Z 03010KT 12/01 A3035 RMK A01 T01210005  RH  045%=      5-min Rain = 0
KST2 142238Z 03011KT 12/01 A3035 RMK A01 T01200005  RH  045%=      5-min Rain = 0
KST2 142239Z 03010KT 12/01 A3035 RMK A01 T01200005  RH  045%=      5-min Rain = 0
KST2 142240Z 02010KT 12/01 A3035 RMK A01 T01200006  RH  046%=      5-min Rain = 0
KST2 142241Z 01012KT 12/01 A3035 RMK A01 T01200005  RH  045%=      5-min Rain = 0
KST2 142242Z 01011KT 12/01 A3035 RMK A01 T01190005  RH  045%=      5-min Rain = 0
KST2 142243Z 02011KT 12/01 A3035 RMK A01 T01190005  RH  046%=      5-min Rain = 0
KST2 142244Z 02011KT 12/01 A3035 RMK A01 T01190005  RH  046%=      5-min Rain = 0
KST2 142245Z 01011KT 12/00 A3035 RMK A01 T01190004  RH  045%=      5-min Rain = 0
KST2 142246Z 02012KT 12/01 A3035 RMK A01 T01180005  RH  046%=      5-min Rain = 0
KST2 142247Z 03011KT 12/01 A3035 RMK A01 T01180005  RH  046%=      5-min Rain = 0
KST2 142248Z 02010KT 12/01 A3035 RMK A01 T01180005  RH  046%=      5-min Rain = 0
KST2 142249Z 02011KT 12/01 A3035 RMK A01 T01180006  RH  046%=      5-min Rain = 0
KST2 142250Z 02012KT 12/01 A3035 RMK A01 T01180005  RH  046%=      5-min Rain = 0
KST2 142251Z 02011KT 12/01 A3035 RMK A01 T01170005  RH  046%=      5-min Rain = 0
KST2 142252Z 01012KT 12/01 A3035 RMK A01 T01170005  RH  046%=      5-min Rain = 0
KST2 142253Z 02012KT 12/00 A3035 RMK A01 T01170004  RH  046%=      5-min Rain = 0
KST2 142254Z 03010KT 12/01 A3035 RMK A01 T01170005  RH  046%=      5-min Rain = 0
KST2 142255Z 03010KT 12/01 A3035 RMK A01 T01170005  RH  046%=      5-min Rain = 0
KST2 142256Z 03011KT 12/01 A3035 RMK A01 T01170005  RH  046%=      5-min Rain = 0
KST2 142257Z 02012KT 12/00 A3035 RMK A01 T01160004  RH  046%=      5-min Rain = 0
KST2 142258Z 03011KT 12/00 A3035 RMK A01 T01160004  RH  046%=      5-min Rain = 0
KST2 142259Z 02011KT 12/00 A3036 RMK A01 T01160003  RH  046%=      5-min Rain = 0
KST2 142300Z 02011KT 12/00 A3036 RMK A01 T01150003  RH  046%=      5-min Rain = 0
KST2 142301Z 03012KT 12/00 A3036 RMK A01 T01150003  RH  046%=      5-min Rain = 0
KST2 142302Z 03014KT 12/00 A3036 RMK A01 T01150002  RH  046%=      5-min Rain = 0
KST2 142303Z 02012KT 12/00 A3036 RMK A01 T01150002  RH  046%=      5-min Rain = 0
KST2 142304Z 02009KT 12/00 A3036 RMK A01 T01150004  RH  046%=      5-min Rain = 0
KST2 142305Z 02008KT 11/01 A3036 RMK A01 T01140005  RH  047%=      5-min Rain = 0
KST2 142306Z 02008KT 11/01 A3036 RMK A01 T01140005  RH  047%=      5-min Rain = 0
KST2 142307Z 02009KT 11/01 A3036 RMK A01 T01140005  RH  047%=      5-min Rain = 0
KST2 142308Z 02010KT 11/01 A3036 RMK A01 T01130005  RH  047%=      5-min Rain = 0
KST2 142309Z 02012KT 11/01 A3036 RMK A01 T01130005  RH  047%=      5-min Rain = 0
KST2 142310Z 01011KT 11/01 A3036 RMK A01 T01120005  RH  047%=      5-min Rain = 0
KST2 142311Z 02010KT 11/01 A3036 RMK A01 T01120005  RH  048%=      5-min Rain = 0
KST2 142312Z 01010KT 11/01 A3036 RMK A01 T01110005  RH  048%=      5-min Rain = 0
KST2 142313Z 01011KT 11/01 A3036 RMK A01 T01110005  RH  048%=      5-min Rain = 0
KST2 142314Z 01011KT 11/01 A3036 RMK A01 T01100005  RH  048%=      5-min Rain = 0
KST2 142315Z 02010KT 11/01 A3036 RMK A01 T01100005  RH  048%=      5-min Rain = 0
KST2 142316Z 02009KT 11/01 A3036 RMK A01 T01100006  RH  049%=      5-min Rain = 0
KST2 142317Z 02009KT 11/01 A3036 RMK A01 T01090006  RH  049%=      5-min Rain = 0
KST2 142318Z 02009KT 11/01 A3036 RMK A01 T01090006  RH  049%=      5-min Rain = 0
KST2 142319Z 02009KT 11/01 A3036 RMK A01 T01080006  RH  049%=      5-min Rain = 0
KST2 142320Z 02008KT 11/01 A3036 RMK A01 T01080006  RH  049%=      5-min Rain = 0
KST2 142321Z 01008KT 11/01 A3036 RMK A01 T01070006  RH  050%=      5-min Rain = 0
KST2 142322Z 01007KT 11/01 A3036 RMK A01 T01060006  RH  050%=      5-min Rain = 0
KST2 142323Z 01007KT 11/01 A3036 RMK A01 T01060006  RH  050%=      5-min Rain = 0
KST2 142324Z 01007KT 10/01 A3036 RMK A01 T01040006  RH  050%=      5-min Rain = 0
KST2 142325Z 01008KT 10/01 A3036 RMK A01 T01030005  RH  051%=      5-min Rain = 0
KST2 142326Z 01008KT 10/01 A3036 RMK A01 T01030005  RH  051%=      5-min Rain = 0
KST2 142327Z 01008KT 10/01 A3036 RMK A01 T01020005  RH  051%=      5-min Rain = 0
KST2 142328Z 01009KT 10/01 A3036 RMK A01 T01020006  RH  051%=      5-min Rain = 0
KST2 142329Z 01008KT 10/01 A3036 RMK A01 T01010006  RH  051%=      5-min Rain = 0
KST2 142330Z 01008KT 10/01 A3036 RMK A01 T01010006  RH  052%=      5-min Rain = 0
KST2 142331Z 01008KT 10/01 A3036 RMK A01 T01000006  RH  052%=      5-min Rain = 0
KST2 142332Z 01008KT 10/01 A3036 RMK A01 T01000007  RH  052%=      5-min Rain = 0
KST2 142333Z 01008KT 10/01 A3036 RMK A01 T00990007  RH  052%=      5-min Rain = 0
KST2 142334Z 01008KT 10/01 A3036 RMK A01 T00980006  RH  053%=      5-min Rain = 0
KST2 142335Z 01008KT 10/01 A3036 RMK A01 T00980007  RH  053%=      5-min Rain = 0
KST2 142336Z 01007KT 10/01 A3036 RMK A01 T00970006  RH  053%=      5-min Rain = 0
KST2 142337Z 01007KT 10/01 A3036 RMK A01 T00960006  RH  054%=      5-min Rain = 0
KST2 142338Z 02008KT 10/01 A3036 RMK A01 T00950006  RH  054%=      5-min Rain = 0
KST2 142339Z 02008KT 10/01 A3037 RMK A01 T00950006  RH  054%=      5-min Rain = 0
KST2 142340Z 02008KT 09/01 A3037 RMK A01 T00940006  RH  054%=      5-min Rain = 0
KST2 142341Z 01008KT 09/01 A3037 RMK A01 T00940006  RH  054%=      5-min Rain = 0
KST2 142342Z 01008KT 09/01 A3037 RMK A01 T00940006  RH  054%=      5-min Rain = 0
KST2 142343Z 01008KT 09/01 A3037 RMK A01 T00940007  RH  055%=      5-min Rain = 0
KST2 142344Z 01008KT 09/01 A3037 RMK A01 T00930007  RH  055%=      5-min Rain = 0
KST2 142345Z 01008KT 09/01 A3037 RMK A01 T00920006  RH  055%=      5-min Rain = 0
KST2 142346Z 01008KT 09/01 A3037 RMK A01 T00910006  RH  055%=      5-min Rain = 0
KST2 142347Z 01008KT 09/01 A3037 RMK A01 T00910006  RH  055%=      5-min Rain = 0
KST2 142348Z 01008KT 09/01 A3037 RMK A01 T00900006  RH  055%=      5-min Rain = 0
KST2 142349Z 01008KT 09/01 A3037 RMK A01 T00900006  RH  056%=      5-min Rain = 0
KST2 142350Z 01008KT 09/01 A3037 RMK A01 T00890006  RH  056%=      5-min Rain = 0
KST2 142351Z 01007KT 09/01 A3037 RMK A01 T00880006  RH  056%=      5-min Rain = 0
KST2 142352Z 01008KT 09/01 A3037 RMK A01 T00870005  RH  056%=      5-min Rain = 0
KST2 142353Z 01007KT 09/01 A3037 RMK A01 T00860005  RH  057%=      5-min Rain = 0
KST2 142354Z 02007KT 09/01 A3037 RMK A01 T00860005  RH  057%=      5-min Rain = 0
KST2 142355Z 01007KT 09/01 A3037 RMK A01 T00850005  RH  057%=      5-min Rain = 0
KST2 142356Z 02007KT 08/01 A3037 RMK A01 T00840005  RH  057%=      5-min Rain = 0
KST2 142357Z 02007KT 08/01 A3037 RMK A01 T00840005  RH  058%=      5-min Rain = 0
KST2 142358Z 02007KT 08/01 A3037 RMK A01 T00830005  RH  058%=      5-min Rain = 0
KST2 142359Z 02007KT 08/01 A3037 RMK A01 T00820005  RH  058%=      5-min Rain = 0
KST2 150000Z 02007KT 08/00 A3037 RMK A01 T00820004  RH  058%=      5-min Rain = 0
KST2 150001Z 02007KT 08/01 A3037 RMK A01 T00810005  RH  058%=      5-min Rain = 0
KST2 150002Z 02007KT 08/01 A3038 RMK A01 T00810005  RH  059%=      5-min Rain = 0
KST2 150003Z 02007KT 08/01 A3038 RMK A01 T00800005  RH  059%=      5-min Rain = 0
KST2 150004Z 02007KT 08/00 A3038 RMK A01 T00800004  RH  059%=      5-min Rain = 0
KST2 150005Z 02007KT 08/01 A3038 RMK A01 T00790005  RH  059%=      5-min Rain = 0
KST2 150006Z 02007KT 08/00 A3038 RMK A01 T00790004  RH  059%=      5-min Rain = 0
KST2 150007Z 02007KT 08/00 A3038 RMK A01 T00780004  RH  060%=      5-min Rain = 0
KST2 150008Z 02007KT 08/00 A3038 RMK A01 T00770004  RH  060%=      5-min Rain = 0
KST2 150009Z 02006KT 08/00 A3038 RMK A01 T00770004  RH  060%=      5-min Rain = 0
KST2 150010Z 02006KT 08/00 A3038 RMK A01 T00760004  RH  060%=      5-min Rain = 0
KST2 150011Z 02006KT 08/00 A3038 RMK A01 T00750004  RH  060%=      5-min Rain = 0
KST2 150012Z 02007KT 08/00 A3038 RMK A01 T00750004  RH  061%=      5-min Rain = 0
KST2 150013Z 02006KT 07/00 A3038 RMK A01 T00740003  RH  061%=      5-min Rain = 0
KST2 150014Z 02006KT 07/00 A3038 RMK A01 T00740003  RH  061%=      5-min Rain = 0
KST2 150015Z 02007KT 07/00 A3038 RMK A01 T00740003  RH  061%=      5-min Rain = 0
KST2 150016Z 02007KT 07/00 A3038 RMK A01 T00730003  RH  061%=      5-min Rain = 0
KST2 150017Z 02007KT 07/00 A3038 RMK A01 T00730003  RH  061%=      5-min Rain = 0
KST2 150018Z 02007KT 07/00 A3038 RMK A01 T00720003  RH  061%=      5-min Rain = 0
KST2 150019Z 02007KT 07/00 A3038 RMK A01 T00720003  RH  062%=      5-min Rain = 0
KST2 150020Z 02007KT 07/00 A3038 RMK A01 T00710003  RH  062%=      5-min Rain = 0
KST2 150021Z 02007KT 07/00 A3038 RMK A01 T00710003  RH  062%=      5-min Rain = 0
KST2 150022Z 02007KT 07/00 A3038 RMK A01 T00700003  RH  062%=      5-min Rain = 0
KST2 150023Z 02007KT 07/00 A3038 RMK A01 T00700003  RH  062%=      5-min Rain = 0
KST2 150024Z 02007KT 07/00 A3038 RMK A01 T00700003  RH  062%=      5-min Rain = 0
KST2 150025Z 02007KT 07/00 A3038 RMK A01 T00700003  RH  062%=      5-min Rain = 0
KST2 150026Z 02007KT 07/00 A3038 RMK A01 T00700003  RH  063%=      5-min Rain = 0
KST2 150027Z 02007KT 07/00 A3038 RMK A01 T00690003  RH  063%=      5-min Rain = 0
KST2 150028Z 02007KT 07/00 A3038 RMK A01 T00690003  RH  063%=      5-min Rain = 0
KST2 150029Z 02007KT 07/00 A3038 RMK A01 T00690003  RH  063%=      5-min Rain = 0
KST2 150030Z 02007KT 07/00 A3038 RMK A01 T00680003  RH  063%=      5-min Rain = 0
KST2 150031Z 02007KT 07/00 A3038 RMK A01 T00680003  RH  063%=      5-min Rain = 0
KST2 150032Z 02007KT 07/00 A3038 RMK A01 T00680003  RH  063%=      5-min Rain = 0
KST2 150033Z 02007KT 07/00 A3038 RMK A01 T00680003  RH  063%=      5-min Rain = 0
KST2 150034Z 02008KT 07/00 A3038 RMK A01 T00670003  RH  063%=      5-min Rain = 0
KST2 150035Z 02008KT 07/00 A3038 RMK A01 T00670003  RH  064%=      5-min Rain = 0
KST2 150036Z 02008KT 07/00 A3038 RMK A01 T00660002  RH  064%=      5-min Rain = 0
KST2 150037Z 02008KT 07/00 A3038 RMK A01 T00660003  RH  064%=      5-min Rain = 0
KST2 150038Z 02007KT 07/00 A3038 RMK A01 T00660003  RH  064%=      5-min Rain = 0
KST2 150039Z 02007KT 07/00 A3038 RMK A01 T00660002  RH  064%=      5-min Rain = 0
KST2 150040Z 02007KT 07/00 A3038 RMK A01 T00660002  RH  064%=      5-min Rain = 0
KST2 150041Z 02007KT 07/00 A3038 RMK A01 T00660003  RH  064%=      5-min Rain = 0
KST2 150042Z 02007KT 07/00 A3039 RMK A01 T00650002  RH  064%=      5-min Rain = 0
KST2 150043Z 02007KT 07/00 A3039 RMK A01 T00650002  RH  064%=      5-min Rain = 0
KST2 150044Z 02007KT 07/00 A3039 RMK A01 T00650002  RH  064%=      5-min Rain = 0
KST2 150045Z 02007KT 07/00 A3039 RMK A01 T00650002  RH  064%=      5-min Rain = 0
KST2 150046Z 02007KT 07/00 A3039 RMK A01 T00650002  RH  064%=      5-min Rain = 0
KST2 150047Z 02007KT 06/00 A3039 RMK A01 T00640002  RH  064%=      5-min Rain = 0
KST2 150048Z 02007KT 06/00 A3039 RMK A01 T00640002  RH  065%=      5-min Rain = 0
KST2 150049Z 02007KT 06/00 A3039 RMK A01 T00630002  RH  065%=      5-min Rain = 0
KST2 150050Z 02007KT 06/00 A3039 RMK A01 T00630002  RH  065%=      5-min Rain = 0
KST2 150051Z 02007KT 06/00 A3039 RMK A01 T00630002  RH  065%=      5-min Rain = 0
KST2 150052Z 02007KT 06/00 A3039 RMK A01 T00620002  RH  065%=      5-min Rain = 0
KST2 150053Z 02007KT 06/00 A3039 RMK A01 T00620002  RH  065%=      5-min Rain = 0
KST2 150054Z 02007KT 06/00 A3039 RMK A01 T00620002  RH  066%=      5-min Rain = 0
KST2 150055Z 02007KT 06/00 A3039 RMK A01 T00610002  RH  066%=      5-min Rain = 0
KST2 150056Z 02007KT 06/00 A3039 RMK A01 T00610002  RH  066%=      5-min Rain = 0
KST2 150057Z 02006KT 06/00 A3039 RMK A01 T00610001  RH  066%=      5-min Rain = 0
KST2 150058Z 02006KT 06/00 A3039 RMK A01 T00610001  RH  066%=      5-min Rain = 0
KST2 150059Z 02006KT 06/00 A3039 RMK A01 T00610001  RH  066%=      5-min Rain = 0
KST2 150100Z 02006KT 06/00 A3039 RMK A01 T00610002  RH  066%=      5-min Rain = 0
KST2 150101Z 02006KT 06/00 A3039 RMK A01 T00610001  RH  066%=      5-min Rain = 0
KST2 150102Z 02006KT 06/00 A3039 RMK A01 T00610001  RH  066%=      5-min Rain = 0
KST2 150103Z 02006KT 06/00 A3039 RMK A01 T00610001  RH  065%=      5-min Rain = 0
KST2 150104Z 02005KT 06/00 A3039 RMK A01 T00610001  RH  065%=      5-min Rain = 0
KST2 150105Z 02005KT 06/00 A3039 RMK A01 T00610001  RH  065%=      5-min Rain = 0
KST2 150106Z 03005KT 06/00 A3039 RMK A01 T00620001  RH  065%=      5-min Rain = 0
KST2 150107Z 03005KT 06/00 A3039 RMK A01 T00620001  RH  065%=      5-min Rain = 0
KST2 150108Z 03005KT 06/00 A3039 RMK A01 T00620002  RH  065%=      5-min Rain = 0
KST2 150109Z 03005KT 06/00 A3039 RMK A01 T00620001  RH  065%=      5-min Rain = 0
KST2 150110Z 03005KT 06/00 A3039 RMK A01 T00630002  RH  065%=      5-min Rain = 0
KST2 150111Z 03005KT 06/00 A3039 RMK A01 T00630002  RH  065%=      5-min Rain = 0
KST2 150112Z 03005KT 06/00 A3039 RMK A01 T00630002  RH  065%=      5-min Rain = 0
KST2 150113Z 03005KT 06/00 A3039 RMK A01 T00630002  RH  065%=      5-min Rain = 0
KST2 150114Z 03005KT 06/00 A3039 RMK A01 T00630001  RH  065%=      5-min Rain = 0
KST2 150115Z 03005KT 06/00 A3039 RMK A01 T00630002  RH  065%=      5-min Rain = 0
KST2 150116Z 03005KT 06/00 A3039 RMK A01 T00630002  RH  065%=      5-min Rain = 0
KST2 150117Z 03005KT 06/00 A3039 RMK A01 T00630002  RH  065%=      5-min Rain = 0
KST2 150118Z 03005KT 06/00 A3039 RMK A01 T00640002  RH  065%=      5-min Rain = 0
KST2 150119Z 03005KT 06/00 A3039 RMK A01 T00640002  RH  064%=      5-min Rain = 0
KST2 150120Z 03005KT 06/00 A304 RMK A01 T00640002  RH  064%=      5-min Rain = 0
KST2 150121Z 03005KT 06/00 A304 RMK A01 T00640001  RH  064%=      5-min Rain = 0
KST2 150122Z 03005KT 06/00 A304 RMK A01 T00640001  RH  064%=      5-min Rain = 0
KST2 150123Z 03005KT 06/00 A304 RMK A01 T00640001  RH  064%=      5-min Rain = 0
KST2 150124Z 03005KT 07/00 A304 RMK A01 T00650001  RH  064%=      5-min Rain = 0
KST2 150125Z 03005KT 07/00 A304 RMK A01 T00660002  RH  064%=      5-min Rain = 0
KST2 150126Z 03005KT 07/00 A304 RMK A01 T00660002  RH  064%=      5-min Rain = 0
KST2 150127Z 03004KT 07/00 A304 RMK A01 T00670002  RH  063%=      5-min Rain = 0
KST2 150128Z 03004KT 07/00 A304 RMK A01 T00670004  RH  064%=      5-min Rain = 0
KST2 150129Z 03004KT 07/01 A304 RMK A01 T00660006  RH  065%=      5-min Rain = 0
KST2 150130Z 03004KT 07/01 A304 RMK A01 T00660006  RH  066%=      5-min Rain = 0
KST2 150131Z 04004KT 07/01 A304 RMK A01 T00650005  RH  065%=      5-min Rain = 0
KST2 150132Z 05003KT 07/00 A304 RMK A01 T00650003  RH  065%=      5-min Rain = 0
KST2 150133Z 05003KT 07/00 A304 RMK A01 T00650002  RH  064%=      5-min Rain = 0
KST2 150134Z 05003KT 07/00 A304 RMK A01 T00650002  RH  064%=      5-min Rain = 0
KST2 150135Z 05003KT 06/00 A304 RMK A01 T00640001  RH  064%=      5-min Rain = 0
KST2 150136Z 05003KT 06/00 A304 RMK A01 T00640001  RH  064%=      5-min Rain = 0
KST2 150137Z 05003KT 06/00 A304 RMK A01 T00630001  RH  064%=      5-min Rain = 0
KST2 150138Z 05003KT 06/00 A304 RMK A01 T00630001  RH  065%=      5-min Rain = 0
KST2 150139Z 05003KT 06/00 A3041 RMK A01 T00630001  RH  065%=      5-min Rain = 0
KST2 150140Z 05003KT 06/00 A3041 RMK A01 T00630002  RH  065%=      5-min Rain = 0
KST2 150141Z 05003KT 06/00 A3041 RMK A01 T00630002  RH  065%=      5-min Rain = 0
KST2 150142Z 05003KT 06/00 A3041 RMK A01 T00630003  RH  065%=      5-min Rain = 0
KST2 150143Z 05003KT 06/00 A3041 RMK A01 T00630003  RH  066%=      5-min Rain = 0
KST2 150144Z 05003KT 06/00 A3041 RMK A01 T00630004  RH  066%=      5-min Rain = 0
KST2 150145Z 05003KT 06/00 A3041 RMK A01 T00630004  RH  066%=      5-min Rain = 0
KST2 150146Z 05003KT 06/01 A3041 RMK A01 T00640005  RH  066%=      5-min Rain = 0
KST2 150147Z 05003KT 06/00 A3041 RMK A01 T00640004  RH  066%=      5-min Rain = 0
KST2 150148Z 05003KT 06/00 A3041 RMK A01 T00640004  RH  065%=      5-min Rain = 0
KST2 150149Z 05003KT 06/00 A3041 RMK A01 T00640004  RH  065%=      5-min Rain = 0
KST2 150150Z 05003KT 06/00 A3041 RMK A01 T00640004  RH  065%=      5-min Rain = 0
KST2 150151Z 05003KT 06/00 A3041 RMK A01 T00640004  RH  065%=      5-min Rain = 0
KST2 150152Z 05003KT 06/00 A3041 RMK A01 T00640004  RH  065%=      5-min Rain = 0
KST2 150153Z 05003KT 06/00 A3041 RMK A01 T00640004  RH  065%=      5-min Rain = 0
KST2 150154Z 05003KT 06/00 A3041 RMK A01 T00630003  RH  065%=      5-min Rain = 0
KST2 150155Z 05003KT 06/00 A3041 RMK A01 T00630003  RH  066%=      5-min Rain = 0
KST2 150156Z 05003KT 06/00 A3041 RMK A01 T00630004  RH  066%=      5-min Rain = 0
KST2 150157Z 05003KT 06/00 A3041 RMK A01 T00630003  RH  066%=      5-min Rain = 0
KST2 150158Z 05003KT 06/00 A3041 RMK A01 T00630004  RH  066%=      5-min Rain = 0
KST2 150159Z 05003KT 06/00 A3041 RMK A01 T00620004  RH  066%=      5-min Rain = 0
KST2 150200Z 05003KT 06/00 A3041 RMK A01 T00610003  RH  067%=      5-min Rain = 0
KST2 150201Z 05002KT 06/00 A3041 RMK A01 T00600003  RH  067%=      5-min Rain = 0
KST2 150202Z 05002KT 06/01 A3041 RMK A01 T00600005  RH  068%=      5-min Rain = 0
KST2 150203Z 05002KT 06/01 A3041 RMK A01 T00590007  RH  069%=      5-min Rain = 0
KST2 150204Z 04002KT 06/01 A3041 RMK A01 T00580007  RH  070%=      5-min Rain = 0
KST2 150205Z 04003KT 06/01 A3041 RMK A01 T00580007  RH  070%=      5-min Rain = 0
KST2 150206Z 04003KT 06/01 A3042 RMK A01 T00570008  RH  071%=      5-min Rain = 0
KST2 150207Z 04002KT 06/01 A3042 RMK A01 T00560009  RH  072%=      5-min Rain = 0
KST2 150208Z 04002KT 06/01 A3041 RMK A01 T00560010  RH  072%=      5-min Rain = 0
KST2 150209Z 04003KT 06/01 A3041 RMK A01 T00550011  RH  073%=      5-min Rain = 0
KST2 150210Z 04003KT 05/01 A3041 RMK A01 T00540011  RH  074%=      5-min Rain = 0
KST2 150211Z 04002KT 05/01 A3041 RMK A01 T00530011  RH  075%=      5-min Rain = 0
KST2 150212Z 04002KT 05/01 A3042 RMK A01 T00520011  RH  075%=      5-min Rain = 0
KST2 150213Z 04002KT 05/01 A3042 RMK A01 T00510009  RH  074%=      5-min Rain = 0
KST2 150214Z 04002KT 05/01 A3042 RMK A01 T00510009  RH  074%=      5-min Rain = 0
KST2 150215Z 03002KT 05/01 A3042 RMK A01 T00510009  RH  075%=      5-min Rain = 0
KST2 150216Z 03002KT 05/01 A3042 RMK A01 T00500009  RH  075%=      5-min Rain = 0
KST2 150217Z 03002KT 05/01 A3042 RMK A01 T00500007  RH  074%=      5-min Rain = 0
KST2 150218Z 03002KT 05/01 A3042 RMK A01 T00500007  RH  073%=      5-min Rain = 0
KST2 150219Z 03002KT 05/01 A3042 RMK A01 T00500007  RH  074%=      5-min Rain = 0
KST2 150220Z 03002KT 05/01 A3042 RMK A01 T00510008  RH  074%=      5-min Rain = 0
KST2 150221Z 03002KT 05/01 A3042 RMK A01 T00510009  RH  075%=      5-min Rain = 0
KST2 150222Z 03002KT 05/01 A3042 RMK A01 T00510009  RH  075%=      5-min Rain = 0
KST2 150223Z 03002KT 05/01 A3042 RMK A01 T00510009  RH  075%=      5-min Rain = 0
KST2 150224Z 03002KT 05/01 A3042 RMK A01 T00510010  RH  075%=      5-min Rain = 0
KST2 150225Z 03002KT 05/01 A3042 RMK A01 T00510010  RH  075%=      5-min Rain = 0
KST2 150226Z 03002KT 05/01 A3042 RMK A01 T00500010  RH  075%=      5-min Rain = 0
KST2 150227Z 03002KT 05/01 A3042 RMK A01 T00500009  RH  075%=      5-min Rain = 0
KST2 150228Z 03002KT 05/01 A3042 RMK A01 T00500009  RH  075%=      5-min Rain = 0
KST2 150229Z 03002KT 05/01 A3042 RMK A01 T00510010  RH  075%=      5-min Rain = 0
KST2 150230Z 03003KT 05/01 A3042 RMK A01 T00510011  RH  075%=      5-min Rain = 0
KST2 150231Z 03003KT 05/01 A3042 RMK A01 T00500011  RH  076%=      5-min Rain = 0
KST2 150232Z 03002KT 05/01 A3042 RMK A01 T00500011  RH  076%=      5-min Rain = 0
KST2 150233Z 02003KT 05/01 A3042 RMK A01 T00490011  RH  076%=      5-min Rain = 0
KST2 150234Z 02003KT 05/01 A3042 RMK A01 T00490012  RH  077%=      5-min Rain = 0
KST2 150235Z 02003KT 05/01 A3042 RMK A01 T00490011  RH  077%=      5-min Rain = 0
KST2 150236Z 02003KT 05/01 A3042 RMK A01 T00480011  RH  077%=      5-min Rain = 0
KST2 150237Z 02003KT 05/01 A3042 RMK A01 T00480011  RH  077%=      5-min Rain = 0
KST2 150238Z 02003KT 05/01 A3042 RMK A01 T00470011  RH  077%=      5-min Rain = 0
KST2 150239Z 02002KT 05/01 A3043 RMK A01 T00470011  RH  078%=      5-min Rain = 0
KST2 150240Z 01003KT 05/01 A3043 RMK A01 T00470011  RH  078%=      5-min Rain = 0
KST2 150241Z 01003KT 05/01 A3043 RMK A01 T00460011  RH  078%=      5-min Rain = 0
KST2 150242Z 01003KT 05/01 A3043 RMK A01 T00460011  RH  078%=      5-min Rain = 0
KST2 150243Z 01002KT 05/01 A3043 RMK A01 T00460012  RH  079%=      5-min Rain = 0
KST2 150244Z 01002KT 05/01 A3043 RMK A01 T00450012  RH  079%=      5-min Rain = 0
KST2 150245Z 36002KT 05/01 A3043 RMK A01 T00450012  RH  079%=      5-min Rain = 0
KST2 150246Z 35002KT 05/01 A3043 RMK A01 T00450012  RH  079%=      5-min Rain = 0
KST2 150247Z 35002KT 04/01 A3043 RMK A01 T00440012  RH  079%=      5-min Rain = 0
KST2 150248Z 35003KT 04/01 A3043 RMK A01 T00440011  RH  079%=      5-min Rain = 0
KST2 150249Z 35003KT 04/01 A3043 RMK A01 T00440011  RH  079%=      5-min Rain = 0
KST2 150250Z 35003KT 04/01 A3043 RMK A01 T00430010  RH  079%=      5-min Rain = 0
KST2 150251Z 35003KT 04/01 A3043 RMK A01 T00430010  RH  079%=      5-min Rain = 0
KST2 150252Z 35003KT 04/01 A3043 RMK A01 T00430010  RH  079%=      5-min Rain = 0
KST2 150253Z 35003KT 04/01 A3043 RMK A01 T00440010  RH  079%=      5-min Rain = 0
KST2 150254Z 35003KT 04/01 A3043 RMK A01 T00430009  RH  078%=      5-min Rain = 0
KST2 150255Z 35003KT 04/01 A3043 RMK A01 T00440009  RH  078%=      5-min Rain = 0
KST2 150256Z 35003KT 04/01 A3043 RMK A01 T00440009  RH  078%=      5-min Rain = 0
KST2 150257Z 35003KT 04/01 A3043 RMK A01 T00440009  RH  078%=      5-min Rain = 0
KST2 150258Z 35003KT 04/01 A3043 RMK A01 T00440010  RH  078%=      5-min Rain = 0
KST2 150259Z 35003KT 04/01 A3043 RMK A01 T00440010  RH  078%=      5-min Rain = 0
KST2 150300Z 35003KT 04/01 A3043 RMK A01 T00440010  RH  078%=      5-min Rain = 0
KST2 150301Z 35003KT 04/01 A3043 RMK A01 T00440010  RH  078%=      5-min Rain = 0
KST2 150302Z 35003KT 04/01 A3043 RMK A01 T00440010  RH  078%=      5-min Rain = 0
KST2 150303Z 35003KT 04/01 A3043 RMK A01 T00440010  RH  079%=      5-min Rain = 0
KST2 150304Z 35003KT 04/01 A3043 RMK A01 T00440010  RH  079%=      5-min Rain = 0
KST2 150305Z 35003KT 04/01 A3043 RMK A01 T00440010  RH  079%=      5-min Rain = 0
KST2 150306Z 35003KT 04/01 A3043 RMK A01 T00440010  RH  079%=      5-min Rain = 0
KST2 150307Z 35003KT 04/01 A3043 RMK A01 T00440010  RH  079%=      5-min Rain = 0
KST2 150308Z 35003KT 04/01 A3043 RMK A01 T00440010  RH  078%=      5-min Rain = 0
KST2 150309Z 34003KT 04/01 A3043 RMK A01 T00440010  RH  078%=      5-min Rain = 0
KST2 150310Z 34003KT 04/01 A3043 RMK A01 T00440010  RH  078%=      5-min Rain = 0
KST2 150311Z 34003KT 04/01 A3043 RMK A01 T00440010  RH  078%=      5-min Rain = 0
KST2 150312Z 34003KT 04/01 A3043 RMK A01 T00440010  RH  078%=      5-min Rain = 0
KST2 150313Z 34003KT 04/01 A3043 RMK A01 T00440010  RH  079%=      5-min Rain = 0
KST2 150314Z 34003KT 04/01 A3043 RMK A01 T00440010  RH  078%=      5-min Rain = 0
KST2 150315Z 33004KT 04/01 A3043 RMK A01 T00440009  RH  078%=      5-min Rain = 0
KST2 150316Z 33004KT 04/01 A3043 RMK A01 T00440009  RH  078%=      5-min Rain = 0
KST2 150317Z 33005KT 04/01 A3043 RMK A01 T00440010  RH  078%=      5-min Rain = 0
KST2 150318Z 33005KT 04/01 A3043 RMK A01 T00440010  RH  078%=      5-min Rain = 0
KST2 150319Z 33006KT 04/01 A3043 RMK A01 T00430009  RH  078%=      5-min Rain = 0
KST2 150320Z 33006KT 04/01 A3043 RMK A01 T00440010  RH  079%=      5-min Rain = 0
KST2 150321Z 32006KT 04/01 A3043 RMK A01 T00430009  RH  079%=      5-min Rain = 0
KST2 150322Z 32006KT 04/01 A3043 RMK A01 T00420008  RH  078%=      5-min Rain = 0
KST2 150323Z 32007KT 04/01 A3043 RMK A01 T00420008  RH  078%=      5-min Rain = 0
KST2 150324Z 32006KT 04/01 A3043 RMK A01 T00420008  RH  078%=      5-min Rain = 0
KST2 150325Z 32006KT 04/01 A3043 RMK A01 T00420008  RH  078%=      5-min Rain = 0
KST2 150326Z 32006KT 04/01 A3044 RMK A01 T00420008  RH  079%=      5-min Rain = 0
KST2 150327Z 32006KT 04/01 A3044 RMK A01 T00420008  RH  079%=      5-min Rain = 0
KST2 150328Z 32006KT 04/01 A3043 RMK A01 T00410008  RH  079%=      5-min Rain = 0
KST2 150329Z 32006KT 04/01 A3043 RMK A01 T00410007  RH  079%=      5-min Rain = 0
KST2 150330Z 32006KT 04/01 A3043 RMK A01 T00400008  RH  079%=      5-min Rain = 0
KST2 150331Z 33006KT 04/01 A3043 RMK A01 T00400008  RH  079%=      5-min Rain = 0
KST2 150332Z 33006KT 04/01 A3043 RMK A01 T00400007  RH  079%=      5-min Rain = 0
KST2 150333Z 33006KT 04/01 A3043 RMK A01 T00400008  RH  080%=      5-min Rain = 0
KST2 150334Z 33006KT 04/01 A3043 RMK A01 T00390007  RH  080%=      5-min Rain = 0
KST2 150335Z 33006KT 04/01 A3043 RMK A01 T00390007  RH  080%=      5-min Rain = 0
KST2 150336Z 33005KT 04/01 A3043 RMK A01 T00390007  RH  080%=      5-min Rain = 0
KST2 150337Z 33005KT 04/01 A3043 RMK A01 T00390007  RH  080%=      5-min Rain = 0
KST2 150338Z 33005KT 04/01 A3043 RMK A01 T00380007  RH  080%=      5-min Rain = 0
KST2 150339Z 33005KT 04/01 A3043 RMK A01 T00380007  RH  080%=      5-min Rain = 0
KST2 150340Z 33005KT 04/01 A3043 RMK A01 T00380007  RH  080%=      5-min Rain = 0
KST2 150341Z 33005KT 04/01 A3043 RMK A01 T00370007  RH  081%=      5-min Rain = 0
KST2 150342Z 33005KT 04/01 A3043 RMK A01 T00370007  RH  081%=      5-min Rain = 0
KST2 150343Z 33006KT 04/01 A3043 RMK A01 T00370007  RH  081%=      5-min Rain = 0
KST2 150344Z 33006KT 04/01 A3043 RMK A01 T00370007  RH  081%=      5-min Rain = 0
KST2 150345Z 33006KT 04/01 A3043 RMK A01 T00360007  RH  081%=      5-min Rain = 0
KST2 150346Z 33006KT 04/01 A3043 RMK A01 T00370007  RH  081%=      5-min Rain = 0
KST2 150347Z 33006KT 04/01 A3043 RMK A01 T00370007  RH  081%=      5-min Rain = 0
KST2 150348Z 33006KT 04/01 A3043 RMK A01 T00370007  RH  081%=      5-min Rain = 0
KST2 150349Z 33006KT 04/01 A3043 RMK A01 T00370007  RH  081%=      5-min Rain = 0
KST2 150350Z 33006KT 04/01 A3043 RMK A01 T00360007  RH  081%=      5-min Rain = 0
KST2 150351Z 32006KT 04/01 A3043 RMK A01 T00370007  RH  081%=      5-min Rain = 0
KST2 150352Z 32006KT 04/01 A3043 RMK A01 T00360007  RH  081%=      5-min Rain = 0
KST2 150353Z 32006KT 04/01 A3043 RMK A01 T00370007  RH  081%=      5-min Rain = 0
KST2 150354Z 32006KT 04/01 A3043 RMK A01 T00360007  RH  081%=      5-min Rain = 0
KST2 150355Z 32006KT 04/01 A3043 RMK A01 T00360007  RH  081%=      5-min Rain = 0
KST2 150356Z 33006KT 04/01 A3043 RMK A01 T00360007  RH  081%=      5-min Rain = 0
KST2 150357Z 33006KT 04/01 A3043 RMK A01 T00360007  RH  082%=      5-min Rain = 0
KST2 150358Z 33006KT 04/01 A3043 RMK A01 T00350007  RH  082%=      5-min Rain = 0
KST2 150359Z 33006KT 04/01 A3043 RMK A01 T00350007  RH  082%=      5-min Rain = 0
KST2 150400Z 33006KT 04/01 A3043 RMK A01 T00350007  RH  082%=      5-min Rain = 0
KST2 150401Z 33005KT 03/01 A3043 RMK A01 T00340006  RH  082%=      5-min Rain = 0
KST2 150402Z 33005KT 03/01 A3043 RMK A01 T00340006  RH  082%=      5-min Rain = 0
KST2 150403Z 33005KT 03/01 A3043 RMK A01 T00340006  RH  082%=      5-min Rain = 0
KST2 150404Z 33005KT 03/01 A3043 RMK A01 T00340006  RH  082%=      5-min Rain = 0
KST2 150405Z 33005KT 03/01 A3043 RMK A01 T00340006  RH  082%=      5-min Rain = 0
KST2 150406Z 33005KT 03/01 A3043 RMK A01 T00340006  RH  082%=      5-min Rain = 0
KST2 150407Z 33005KT 03/01 A3043 RMK A01 T00340005  RH  082%=      5-min Rain = 0
KST2 150408Z 34005KT 03/01 A3043 RMK A01 T00330005  RH  082%=      5-min Rain = 0
KST2 150409Z 34005KT 03/01 A3043 RMK A01 T00330005  RH  082%=      5-min Rain = 0
KST2 150410Z 34005KT 03/01 A3043 RMK A01 T00330005  RH  082%=      5-min Rain = 0
KST2 150411Z 34005KT 03/01 A3043 RMK A01 T00340005  RH  082%=      5-min Rain = 0
KST2 150412Z 34005KT 03/01 A3043 RMK A01 T00330005  RH  082%=      5-min Rain = 0
KST2 150413Z 34005KT 03/01 A3043 RMK A01 T00330005  RH  082%=      5-min Rain = 0
KST2 150414Z 34005KT 03/01 A3043 RMK A01 T00330005  RH  082%=      5-min Rain = 0
KST2 150415Z 34005KT 03/01 A3043 RMK A01 T00330005  RH  082%=      5-min Rain = 0
KST2 150416Z 34005KT 03/01 A3043 RMK A01 T00330005  RH  082%=      5-min Rain = 0
KST2 150417Z 34005KT 03/01 A3043 RMK A01 T00330005  RH  082%=      5-min Rain = 0
KST2 150418Z 34005KT 03/01 A3043 RMK A01 T00330005  RH  082%=      5-min Rain = 0
KST2 150419Z 34005KT 03/01 A3043 RMK A01 T00330005  RH  082%=      5-min Rain = 0
KST2 150420Z 34005KT 03/01 A3043 RMK A01 T00330005  RH  082%=      5-min Rain = 0
KST2 150421Z 34005KT 03/01 A3043 RMK A01 T00330005  RH  082%=      5-min Rain = 0
KST2 150422Z 34005KT 03/01 A3043 RMK A01 T00330005  RH  082%=      5-min Rain = 0
KST2 150423Z 34005KT 03/01 A3043 RMK A01 T00330006  RH  082%=      5-min Rain = 0
KST2 150424Z 34005KT 03/01 A3043 RMK A01 T00330006  RH  082%=      5-min Rain = 0
KST2 150425Z 34005KT 03/01 A3043 RMK A01 T00320005  RH  082%=      5-min Rain = 0
KST2 150426Z 34005KT 03/01 A3043 RMK A01 T00320005  RH  083%=      5-min Rain = 0
KST2 150427Z 34005KT 03/01 A3043 RMK A01 T00320005  RH  083%=      5-min Rain = 0
KST2 150428Z 34005KT 03/01 A3043 RMK A01 T00320005  RH  083%=      5-min Rain = 0
KST2 150429Z 34005KT 03/01 A3043 RMK A01 T00320006  RH  083%=      5-min Rain = 0
KST2 150430Z 34005KT 03/01 A3043 RMK A01 T00320006  RH  083%=      5-min Rain = 0
KST2 150431Z 34005KT 03/01 A3043 RMK A01 T00320006  RH  083%=      5-min Rain = 0
KST2 150432Z 34005KT 03/01 A3043 RMK A01 T00320006  RH  083%=      5-min Rain = 0
KST2 150433Z 34005KT 03/01 A3043 RMK A01 T00320006  RH  083%=      5-min Rain = 0
KST2 150434Z 34005KT 03/01 A3043 RMK A01 T00320005  RH  083%=      5-min Rain = 0
KST2 150435Z 34005KT 03/01 A3043 RMK A01 T00320005  RH  083%=      5-min Rain = 0
KST2 150436Z 34005KT 03/01 A3043 RMK A01 T00320005  RH  083%=      5-min Rain = 0
KST2 150437Z 34005KT 03/01 A3043 RMK A01 T00320005  RH  083%=      5-min Rain = 0
KST2 150438Z 33005KT 03/01 A3043 RMK A01 T00320005  RH  083%=      5-min Rain = 0
KST2 150439Z 33004KT 03/01 A3043 RMK A01 T00320005  RH  083%=      5-min Rain = 0
KST2 150440Z 33004KT 03/01 A3043 RMK A01 T00320005  RH  083%=      5-min Rain = 0
KST2 150441Z 33004KT 03/01 A3043 RMK A01 T00320005  RH  083%=      5-min Rain = 0
KST2 150442Z 33004KT 03/01 A3043 RMK A01 T00320005  RH  083%=      5-min Rain = 0
KST2 150443Z 33004KT 03/01 A3043 RMK A01 T00310005  RH  083%=      5-min Rain = 0
KST2 150444Z 33004KT 03/01 A3043 RMK A01 T00320005  RH  082%=      5-min Rain = 0
KST2 150445Z 33004KT 03/01 A3043 RMK A01 T00320005  RH  082%=      5-min Rain = 0
KST2 150446Z 34004KT 03/01 A3043 RMK A01 T00320005  RH  082%=      5-min Rain = 0
KST2 150447Z 34004KT 03/00 A3043 RMK A01 T00320004  RH  082%=      5-min Rain = 0
KST2 150448Z 34004KT 03/00 A3043 RMK A01 T00320004  RH  082%=      5-min Rain = 0
KST2 150449Z 34004KT 03/00 A3043 RMK A01 T00320004  RH  082%=      5-min Rain = 0
KST2 150450Z 34004KT 03/00 A3043 RMK A01 T00320004  RH  082%=      5-min Rain = 0
KST2 150451Z 34004KT 03/00 A3043 RMK A01 T00320004  RH  082%=      5-min Rain = 0
KST2 150452Z 34004KT 03/00 A3043 RMK A01 T00320004  RH  082%=      5-min Rain = 0
KST2 150453Z 34004KT 03/00 A3043 RMK A01 T00320004  RH  082%=      5-min Rain = 0
KST2 150454Z 34004KT 03/00 A3043 RMK A01 T00320004  RH  082%=      5-min Rain = 0
KST2 150455Z 34004KT 03/00 A3043 RMK A01 T00320004  RH  082%=      5-min Rain = 0
KST2 150456Z 34004KT 03/00 A3043 RMK A01 T00320004  RH  082%=      5-min Rain = 0
KST2 150457Z 34004KT 03/00 A3043 RMK A01 T00310004  RH  082%=      5-min Rain = 0
KST2 150458Z 34004KT 03/00 A3043 RMK A01 T00320004  RH  082%=      5-min Rain = 0
KST2 150459Z 34004KT 03/00 A3043 RMK A01 T00310004  RH  082%=      5-min Rain = 0
KST2 150500Z 34004KT 03/00 A3043 RMK A01 T00310004  RH  082%=      5-min Rain = 0
KST2 150501Z 34004KT 03/00 A3043 RMK A01 T00310004  RH  082%=      5-min Rain = 0
KST2 150502Z 34004KT 03/00 A3043 RMK A01 T00310004  RH  082%=      5-min Rain = 0
KST2 150503Z 34004KT 03/00 A3043 RMK A01 T00310004  RH  082%=      5-min Rain = 0
KST2 150504Z 34004KT 03/00 A3043 RMK A01 T00310003  RH  082%=      5-min Rain = 0
KST2 150505Z 34004KT 03/00 A3043 RMK A01 T00310003  RH  082%=      5-min Rain = 0
KST2 150506Z 34004KT 03/00 A3044 RMK A01 T00310003  RH  082%=      5-min Rain = 0
KST2 150507Z 34004KT 03/00 A3044 RMK A01 T00320003  RH  082%=      5-min Rain = 0
KST2 150508Z 34003KT 03/00 A3044 RMK A01 T00320004  RH  082%=      5-min Rain = 0
KST2 150509Z 33003KT 03/00 A3044 RMK A01 T00320004  RH  082%=      5-min Rain = 0
KST2 150510Z 32003KT 03/00 A3044 RMK A01 T00320004  RH  082%=      5-min Rain = 0
KST2 150511Z 31003KT 03/01 A3044 RMK A01 T00320005  RH  082%=      5-min Rain = 0
KST2 150512Z 31003KT 03/01 A3044 RMK A01 T00310005  RH  083%=      5-min Rain = 0
KST2 150513Z 31003KT 03/00 A3044 RMK A01 T00300004  RH  083%=      5-min Rain = 0
KST2 150514Z 31003KT 03/00 A3044 RMK A01 T00300004  RH  083%=      5-min Rain = 0
KST2 150515Z 30003KT 03/00 A3044 RMK A01 T00300004  RH  083%=      5-min Rain = 0
KST2 150516Z 28002KT 03/00 A3044 RMK A01 T00300004  RH  083%=      5-min Rain = 0
KST2 150517Z 29002KT 03/00 A3044 RMK A01 T00300003  RH  083%=      5-min Rain = 0
KST2 150518Z 30002KT 03/00 A3044 RMK A01 T00310004  RH  082%=      5-min Rain = 0
KST2 150519Z 30003KT 03/00 A3044 RMK A01 T00320004  RH  082%=      5-min Rain = 0
KST2 150520Z 30003KT 03/00 A3044 RMK A01 T00320004  RH  082%=      5-min Rain = 0
KST2 150521Z 30003KT 03/00 A3044 RMK A01 T00310004  RH  082%=      5-min Rain = 0
KST2 150522Z 30004KT 03/00 A3044 RMK A01 T00300003  RH  083%=      5-min Rain = 0
KST2 150523Z 30004KT 03/00 A3044 RMK A01 T00290003  RH  083%=      5-min Rain = 0
KST2 150524Z 30004KT 03/00 A3044 RMK A01 T00280003  RH  084%=      5-min Rain = 0
KST2 150525Z 30004KT 03/00 A3044 RMK A01 T00280003  RH  084%=      5-min Rain = 0
KST2 150526Z 30004KT 03/00 A3044 RMK A01 T00280003  RH  084%=      5-min Rain = 0
KST2 150527Z 30004KT 03/00 A3044 RMK A01 T00290003  RH  083%=      5-min Rain = 0
KST2 150528Z 30004KT 03/00 A3044 RMK A01 T00300003  RH  083%=      5-min Rain = 0
KST2 150529Z 30003KT 03/00 A3044 RMK A01 T00310003  RH  082%=      5-min Rain = 0
KST2 150530Z 30003KT 03/00 A3044 RMK A01 T00320003  RH  081%=      5-min Rain = 0
KST2 150531Z 29003KT 03/00 A3044 RMK A01 T00320003  RH  081%=      5-min Rain = 0
KST2 150532Z 29003KT 03/00 A3044 RMK A01 T00310003  RH  082%=      5-min Rain = 0
KST2 150533Z 29003KT 03/00 A3044 RMK A01 T00300003  RH  082%=      5-min Rain = 0
KST2 150534Z 29003KT 03/00 A3044 RMK A01 T00280002  RH  083%=      5-min Rain = 0
KST2 150535Z 29003KT 03/00 A3044 RMK A01 T00260001  RH  084%=      5-min Rain = 0
KST2 150536Z 28003KT 03/00 A3044 RMK A01 T00250000  RH  084%=      5-min Rain = 0
KST2 150537Z 28004KT 02/00 A3044 RMK A01 T002400-0  RH  084%=      5-min Rain = 0
KST2 150538Z 29004KT 02/00 A3044 RMK A01 T002300-0  RH  085%=      5-min Rain = 0
KST2 150539Z 29004KT 02/M00 A3044 RMK A01 T00221001  RH  085%=      5-min Rain = 0
KST2 150540Z 28004KT 02/M00 A3044 RMK A01 T00221001  RH  085%=      5-min Rain = 0
KST2 150541Z 29004KT 02/M00 A3044 RMK A01 T00211001  RH  085%=      5-min Rain = 0
KST2 150542Z 29004KT 02/M00 A3044 RMK A01 T00211002  RH  085%=      5-min Rain = 0
KST2 150543Z 29004KT 02/M00 A3044 RMK A01 T00211001  RH  086%=      5-min Rain = 0
KST2 150544Z 29005KT 02/M00 A3044 RMK A01 T00201001  RH  086%=      5-min Rain = 0
KST2 150545Z 29005KT 02/M00 A3044 RMK A01 T00201001  RH  086%=      5-min Rain = 0
KST2 150546Z 29005KT 02/M00 A3044 RMK A01 T00201001  RH  086%=      5-min Rain = 0
KST2 150547Z 29005KT 02/00 A3044 RMK A01 T002000-0  RH  086%=      5-min Rain = 0
KST2 150548Z 29005KT 02/00 A3044 RMK A01 T002000-0  RH  086%=      5-min Rain = 0
KST2 150549Z 30005KT 02/00 A3044 RMK A01 T00210000  RH  086%=      5-min Rain = 0
KST2 150550Z 30004KT 02/00 A3044 RMK A01 T00210000  RH  086%=      5-min Rain = 0
KST2 150551Z 30004KT 02/00 A3044 RMK A01 T00210001  RH  086%=      5-min Rain = 0
KST2 150552Z 30004KT 02/00 A3044 RMK A01 T00210000  RH  086%=      5-min Rain = 0
KST2 150553Z 30004KT 02/00 A3044 RMK A01 T00220001  RH  086%=      5-min Rain = 0
KST2 150554Z 30004KT 02/00 A3044 RMK A01 T00220001  RH  086%=      5-min Rain = 0
KST2 150555Z 29004KT 02/00 A3044 RMK A01 T00220001  RH  086%=      5-min Rain = 0
KST2 150556Z 29004KT 02/00 A3044 RMK A01 T00230002  RH  086%=      5-min Rain = 0
KST2 150557Z 29004KT 02/00 A3044 RMK A01 T00220001  RH  086%=      5-min Rain = 0
KST2 150558Z 28004KT 02/00 A3044 RMK A01 T00220001  RH  086%=      5-min Rain = 0
KST2 150559Z 28003KT 02/00 A3044 RMK A01 T00220001  RH  086%=      5-min Rain = 0

Page generated in 0.131 seconds.